Time,TemperatureF,DewpointF,PressureIn,WindDirection,WindDirectionDegrees,WindSpeedMPH,WindSpeedGustMPH,Humidity,HourlyPrecipIn,Conditions,Clouds,dailyrainin,SoftwareType,DateUTC
2013-07-07 00:00:00,73.2,73.2,30.06,North,359,0.0,15.4,100,0.03,,SKC,0.03,VWS V14.01,2013-07-07 04:00:00,
2013-07-07 00:03:00,73.0,73.0,30.06,North,359,0.0,15.4,100,0.03,,SKC,0.03,VWS V14.01,2013-07-07 04:03:00,
2013-07-07 00:04:00,73.0,73.0,30.06,North,359,0.0,15.4,100,0.03,,SKC,0.03,VWS V14.01,2013-07-07 04:04:00,
2013-07-07 00:05:00,72.9,72.9,30.06,North,359,0.0,15.4,100,0.03,,SKC,0.03,VWS V14.01,2013-07-07 04:05:00,
2013-07-07 00:06:00,73.1,73.1,30.06,North,359,0.0,15.4,100,0.03,,SKC,0.03,VWS V14.01,2013-07-07 04:06:00,
2013-07-07 00:08:00,73.1,73.1,30.06,North,359,2.1,15.4,100,0.03,,SKC,0.03,VWS V14.01,2013-07-07 04:08:00,
2013-07-07 00:09:00,73.2,73.2,30.06,South,190,6.5,15.4,100,0.03,,SKC,0.03,VWS V14.01,2013-07-07 04:09:00,
2013-07-07 00:10:00,73.1,73.1,30.06,WSW,253,1.1,15.4,100,0.03,,SKC,0.03,VWS V14.01,2013-07-07 04:10:00,
2013-07-07 00:11:00,73.3,73.3,30.06,South,188,9.9,15.4,100,0.03,,SKC,0.03,VWS V14.01,2013-07-07 04:11:00,
2013-07-07 00:14:00,73.3,73.3,30.06,South,170,0.0,15.4,100,0.03,,SKC,0.03,VWS V14.01,2013-07-07 04:14:00,
2013-07-07 00:15:00,73.3,73.3,30.06,SSW,204,7.1,15.4,100,0.03,,SKC,0.03,VWS V14.01,2013-07-07 04:15:00,
2013-07-07 00:16:00,73.3,73.3,30.06,SW,217,5.7,15.4,100,0.03,,SKC,0.03,VWS V14.01,2013-07-07 04:16:00,
2013-07-07 00:19:00,73.3,73.3,30.06,North,359,0.0,15.4,100,0.03,,SKC,0.03,VWS V14.01,2013-07-07 04:19:00,
2013-07-07 00:20:00,73.3,73.3,30.06,North,359,0.2,15.4,100,0.03,,SKC,0.03,VWS V14.01,2013-07-07 04:20:00,
2013-07-07 00:21:00,73.3,73.3,30.06,South,170,0.0,15.4,100,0.03,,SKC,0.03,VWS V14.01,2013-07-07 04:21:00,
2013-07-07 00:24:00,73.1,73.2,30.06,North,359,0.0,15.4,100,0.03,,SKC,0.03,VWS V14.01,2013-07-07 04:24:00,
2013-07-07 00:25:00,73.1,73.1,30.06,North,359,0.0,15.4,100,0.03,,SKC,0.03,VWS V14.01,2013-07-07 04:25:00,
2013-07-07 00:26:00,73.0,73.0,30.06,North,359,0.0,15.4,100,0.03,,SKC,0.03,VWS V14.01,2013-07-07 04:26:00,
2013-07-07 00:29:00,73.1,73.1,30.06,North,359,0.0,15.4,100,0.03,,SKC,0.03,VWS V14.01,2013-07-07 04:29:00,
2013-07-07 00:30:00,73.0,73.0,30.06,North,359,0.0,15.4,100,0.03,,SKC,0.03,VWS V14.01,2013-07-07 04:30:00,
2013-07-07 00:31:00,73.0,73.0,30.06,North,359,0.0,15.4,100,0.03,,SKC,0.03,VWS V14.01,2013-07-07 04:31:00,
2013-07-07 00:34:00,73.1,73.1,30.06,North,359,0.0,15.4,100,0.03,,SKC,0.03,VWS V14.01,2013-07-07 04:34:00,
2013-07-07 00:35:00,73.2,73.2,30.06,North,359,0.0,15.4,100,0.03,,SKC,0.03,VWS V14.01,2013-07-07 04:35:00,
2013-07-07 00:36:00,73.2,73.2,30.06,North,359,0.0,15.4,100,0.03,,SKC,0.03,VWS V14.01,2013-07-07 04:36:00,
2013-07-07 00:39:00,73.3,73.3,30.06,North,359,0.0,15.4,100,0.03,,SKC,0.03,VWS V14.01,2013-07-07 04:39:00,
2013-07-07 00:40:00,73.3,73.3,30.06,North,359,0.0,15.4,100,0.03,,SKC,0.03,VWS V14.01,2013-07-07 04:40:00,
2013-07-07 00:41:00,73.2,73.2,30.06,North,359,0.0,15.4,100,0.03,,SKC,0.03,VWS V14.01,2013-07-07 04:41:00,
2013-07-07 00:44:00,73.3,73.3,30.06,North,359,0.0,15.4,100,0.03,,SKC,0.03,VWS V14.01,2013-07-07 04:44:00,
2013-07-07 00:45:00,73.3,73.3,30.05,North,359,0.0,15.4,100,0.03,,SKC,0.03,VWS V14.01,2013-07-07 04:45:00,
2013-07-07 00:46:00,73.3,73.3,30.05,North,359,0.0,15.4,100,0.03,,SKC,0.03,VWS V14.01,2013-07-07 04:46:00,
2013-07-07 00:49:00,73.3,73.2,30.05,North,359,0.0,15.4,100,0.03,,SKC,0.03,VWS V14.01,2013-07-07 04:49:00,
2013-07-07 00:50:00,73.2,73.2,30.05,North,359,0.0,15.4,100,0.03,,SKC,0.03,VWS V14.01,2013-07-07 04:50:00,
2013-07-07 00:51:00,73.2,73.2,30.05,SW,222,0.6,15.4,100,0.03,,SKC,0.03,VWS V14.01,2013-07-07 04:51:00,
2013-07-07 00:54:00,73.1,73.1,30.05,North,359,0.0,15.4,100,0.03,,SKC,0.03,VWS V14.01,2013-07-07 04:54:00,
2013-07-07 00:55:00,73.1,73.1,30.05,SW,229,7.5,15.4,100,0.03,,SKC,0.03,VWS V14.01,2013-07-07 04:55:00,
2013-07-07 00:56:00,73.2,73.2,30.05,SSW,211,8.3,15.4,100,0.03,,SKC,0.03,VWS V14.01,2013-07-07 04:56:00,
2013-07-07 00:57:00,73.2,73.2,30.05,SSW,211,0.0,15.4,100,0.03,,SKC,0.03,VWS V14.01,2013-07-07 04:57:00,
2013-07-07 00:59:00,73.4,73.4,30.05,SSW,207,4.2,15.4,100,0.03,,SKC,0.03,VWS V14.01,2013-07-07 04:59:00,
2013-07-07 01:00:00,73.3,73.3,30.05,SSW,207,0.0,0.0,100,0.00,,SKC,0.03,VWS V14.01,2013-07-07 05:00:00,
2013-07-07 01:01:00,73.5,73.5,30.05,North,359,0.0,6.6,100,0.00,,SKC,0.03,VWS V14.01,2013-07-07 05:01:00,
2013-07-07 01:02:00,73.4,73.4,30.05,North,359,0.0,0.0,100,0.00,,SKC,0.03,VWS V14.01,2013-07-07 05:02:00,
2013-07-07 01:03:00,73.9,73.9,30.04,SSW,194,6.5,9.6,100,0.00,,SKC,0.00,VWS V14.01,2013-07-07 05:03:00,
2013-07-07 01:04:00,73.8,73.8,30.04,SW,218,1.2,9.6,100,0.00,,SKC,0.00,VWS V14.01,2013-07-07 05:04:00,
2013-07-07 01:05:00,73.5,73.6,30.05,South,190,0.0,0.0,100,0.00,,SKC,0.03,VWS V14.01,2013-07-07 05:05:00,
2013-07-07 01:06:00,73.6,73.6,30.05,North,359,4.3,4.3,100,0.00,,SKC,0.03,VWS V14.01,2013-07-07 05:06:00,
2013-07-07 01:07:00,73.6,73.6,30.05,SSW,211,0.0,0.0,100,0.00,,SKC,0.03,VWS V14.01,2013-07-07 05:07:00,
2013-07-07 01:10:00,73.7,73.7,30.05,SW,218,7.1,9.3,100,0.00,,SKC,0.03,VWS V14.01,2013-07-07 05:10:00,
2013-07-07 01:11:00,73.7,73.7,30.05,North,359,0.0,1.4,100,0.00,,SKC,0.03,VWS V14.01,2013-07-07 05:11:00,
2013-07-07 01:12:00,73.8,73.8,30.05,SSW,197,3.4,7.8,100,0.00,,SKC,0.03,VWS V14.01,2013-07-07 05:12:00,
2013-07-07 01:15:00,73.8,73.8,30.05,SW,225,4.0,7.3,100,0.00,,SKC,0.03,VWS V14.01,2013-07-07 05:15:00,
2013-07-07 01:16:00,73.9,73.9,30.04,South,191,4.5,5.3,100,0.00,,SKC,0.03,VWS V14.01,2013-07-07 05:16:00,
2013-07-07 01:17:00,73.8,73.8,30.05,SSW,204,3.9,8.4,100,0.00,,SKC,0.03,VWS V14.01,2013-07-07 05:17:00,
2013-07-07 01:20:00,73.8,73.8,30.05,South,184,0.0,8.1,100,0.00,,SKC,0.03,VWS V14.01,2013-07-07 05:20:00,
2013-07-07 01:21:00,73.8,73.8,30.05,SW,224,0.4,9.4,100,0.00,,SKC,0.03,VWS V14.01,2013-07-07 05:21:00,
2013-07-07 01:22:00,73.8,73.8,30.05,South,181,0.0,6.6,100,0.00,,SKC,0.03,VWS V14.01,2013-07-07 05:22:00,
2013-07-07 01:23:00,73.8,73.8,30.05,SE,142,2.4,2.7,100,0.00,,SKC,0.03,VWS V14.01,2013-07-07 05:23:00,
2013-07-07 01:25:00,73.8,73.8,30.04,South,183,1.6,8.2,100,0.00,,SKC,0.03,VWS V14.01,2013-07-07 05:25:00,
2013-07-07 01:26:00,73.8,73.8,30.04,SSW,198,7.1,10.3,100,0.00,,SKC,0.03,VWS V14.01,2013-07-07 05:26:00,
2013-07-07 01:27:00,73.8,73.8,30.05,SSW,198,0.0,5.3,100,0.00,,SKC,0.03,VWS V14.01,2013-07-07 05:27:00,
2013-07-07 01:28:00,73.8,73.8,30.05,SW,226,2.9,5.0,100,0.00,,SKC,0.03,VWS V14.01,2013-07-07 05:28:00,
2013-07-07 01:30:00,73.8,73.8,30.05,North,359,0.2,8.3,100,0.00,,SKC,0.03,VWS V14.01,2013-07-07 05:30:00,
2013-07-07 01:31:00,73.8,73.8,30.05,SW,235,0.0,6.4,100,0.00,,SKC,0.03,VWS V14.01,2013-07-07 05:31:00,
2013-07-07 01:32:00,73.8,73.8,30.05,SSW,201,3.5,5.2,100,0.00,,SKC,0.03,VWS V14.01,2013-07-07 05:32:00,
2013-07-07 01:33:00,73.8,73.8,30.05,SW,215,4.5,5.2,100,0.00,,SKC,0.03,VWS V14.01,2013-07-07 05:33:00,
2013-07-07 01:35:00,73.9,73.9,30.04,South,191,2.7,5.9,100,0.00,,SKC,0.03,VWS V14.01,2013-07-07 05:35:00,
2013-07-07 01:36:00,73.8,73.8,30.04,SSW,211,5.7,6.5,100,0.00,,SKC,0.03,VWS V14.01,2013-07-07 05:36:00,
2013-07-07 01:37:00,73.8,73.8,30.04,SW,228,5.3,5.3,100,0.00,,SKC,0.03,VWS V14.01,2013-07-07 05:37:00,
2013-07-07 01:38:00,73.8,73.8,30.04,SSW,198,0.0,8.2,100,0.00,,SKC,0.03,VWS V14.01,2013-07-07 05:38:00,
2013-07-07 01:40:00,73.8,73.8,30.04,SSW,210,3.9,6.3,100,0.00,,SKC,0.03,VWS V14.01,2013-07-07 05:40:00,
2013-07-07 01:41:00,73.8,73.8,30.04,SSW,210,0.0,8.6,100,0.00,,SKC,0.03,VWS V14.01,2013-07-07 05:41:00,
2013-07-07 01:42:00,73.8,73.8,30.04,SW,236,3.0,4.0,100,0.00,,SKC,0.03,VWS V14.01,2013-07-07 05:42:00,
2013-07-07 01:43:00,73.9,73.9,30.04,SSW,205,0.0,3.4,100,0.00,,SKC,0.03,VWS V14.01,2013-07-07 05:43:00,
2013-07-07 01:45:00,73.9,73.9,30.04,SW,228,4.2,4.2,100,0.00,,SKC,0.03,VWS V14.01,2013-07-07 05:45:00,
2013-07-07 01:46:00,73.9,73.9,30.04,South,191,6.8,9.1,100,0.00,,SKC,0.03,VWS V14.01,2013-07-07 05:46:00,
2013-07-07 01:47:00,73.9,73.9,30.04,SW,215,3.4,6.8,100,0.00,,SKC,0.03,VWS V14.01,2013-07-07 05:47:00,
2013-07-07 01:48:00,73.9,73.9,30.04,SSW,200,4.3,4.6,100,0.00,,SKC,0.03,VWS V14.01,2013-07-07 05:48:00,
2013-07-07 01:50:00,73.9,73.9,30.04,South,183,9.1,10.3,100,0.00,,SKC,0.03,VWS V14.01,2013-07-07 05:50:00,
2013-07-07 01:52:00,73.9,73.9,30.04,SSW,202,4.8,8.3,100,0.00,,SKC,0.03,VWS V14.01,2013-07-07 05:52:00,
2013-07-07 01:53:00,73.9,73.9,30.04,WSW,238,0.0,0.0,100,0.00,,SKC,0.03,VWS V14.01,2013-07-07 05:53:00,
2013-07-07 01:59:00,73.9,73.9,30.04,SSW,194,0.4,9.6,100,0.00,,SKC,0.00,VWS V14.01,2013-07-07 05:59:00,
2013-07-07 02:02:00,73.8,73.8,30.04,North,359,9.1,9.6,100,0.00,,SKC,0.00,VWS V14.01,2013-07-07 06:02:00,
2013-07-07 02:04:00,73.9,73.9,30.04,SSW,193,1.6,9.6,100,0.00,,SKC,0.00,VWS V14.01,2013-07-07 06:04:00,
2013-07-07 02:08:00,74.0,74.0,30.04,SSW,212,5.6,9.6,100,0.00,,SKC,0.00,VWS V14.01,2013-07-07 06:08:00,
2013-07-07 02:09:00,74.0,74.0,30.04,South,186,5.0,9.6,100,0.00,,SKC,0.00,VWS V14.01,2013-07-07 06:09:00,
2013-07-07 02:13:00,74.1,74.1,30.04,SW,214,0.0,9.6,100,0.00,,SKC,0.00,VWS V14.01,2013-07-07 06:13:00,
2013-07-07 02:14:00,74.1,74.1,30.04,SW,214,5.0,9.6,100,0.00,,SKC,0.00,VWS V14.01,2013-07-07 06:14:00,
2013-07-07 02:18:00,74.1,74.1,30.04,North,359,0.0,9.6,100,0.00,,SKC,0.00,VWS V14.01,2013-07-07 06:18:00,
2013-07-07 02:19:00,74.1,74.1,30.04,SSE,160,0.0,9.6,100,0.00,,SKC,0.00,VWS V14.01,2013-07-07 06:19:00,
2013-07-07 02:23:00,74.1,74.1,30.04,SW,225,0.0,9.6,100,0.00,,SKC,0.00,VWS V14.01,2013-07-07 06:23:00,
2013-07-07 02:24:00,74.1,74.1,30.04,SW,225,0.0,9.6,100,0.00,,SKC,0.00,VWS V14.01,2013-07-07 06:24:00,
2013-07-07 02:25:00,74.1,74.1,30.04,SW,235,3.0,9.6,100,0.00,,SKC,0.00,VWS V14.01,2013-07-07 06:25:00,
2013-07-07 02:28:00,74.1,74.2,30.04,SW,214,0.0,9.6,100,0.00,,SKC,0.00,VWS V14.01,2013-07-07 06:28:00,
2013-07-07 02:29:00,74.2,74.2,30.04,SW,214,0.0,9.6,100,0.00,,SKC,0.00,VWS V14.01,2013-07-07 06:29:00,
2013-07-07 02:30:00,74.2,74.2,30.04,SW,225,5.7,9.6,100,0.00,,SKC,0.00,VWS V14.01,2013-07-07 06:30:00,
2013-07-07 02:34:00,74.3,74.3,30.04,North,359,0.0,9.6,100,0.00,,SKC,0.00,VWS V14.01,2013-07-07 06:34:00,
2013-07-07 02:35:00,74.2,74.2,30.04,North,359,0.0,9.6,100,0.00,,SKC,0.00,VWS V14.01,2013-07-07 06:35:00,
2013-07-07 02:39:00,74.3,74.3,30.03,SSW,193,0.2,9.6,100,0.00,,SKC,0.00,VWS V14.01,2013-07-07 06:39:00,
2013-07-07 02:40:00,74.3,74.3,30.03,North,359,0.0,9.6,100,0.00,,SKC,0.00,VWS V14.01,2013-07-07 06:40:00,
2013-07-07 02:44:00,74.4,74.4,30.03,SW,224,0.0,9.6,100,0.00,,SKC,0.00,VWS V14.01,2013-07-07 06:44:00,
2013-07-07 02:45:00,74.5,74.5,30.03,SW,224,0.0,9.6,100,0.00,,SKC,0.00,VWS V14.01,2013-07-07 06:45:00,
2013-07-07 02:49:00,74.5,74.5,30.03,SW,228,0.2,9.6,100,0.00,,SKC,0.00,VWS V14.01,2013-07-07 06:49:00,
2013-07-07 02:50:00,74.5,74.5,30.03,North,359,0.0,9.6,100,0.00,,SKC,0.00,VWS V14.01,2013-07-07 06:50:00,
2013-07-07 02:54:00,74.6,74.6,30.02,SSW,205,0.0,9.6,100,0.00,,SKC,0.00,VWS V14.01,2013-07-07 06:54:00,
2013-07-07 02:55:00,74.6,74.6,30.02,South,179,6.3,9.6,100,0.00,,SKC,0.00,VWS V14.01,2013-07-07 06:55:00,
2013-07-07 02:56:00,74.6,74.6,30.02,SW,215,0.4,9.6,100,0.00,,SKC,0.00,VWS V14.01,2013-07-07 06:56:00,
2013-07-07 02:59:00,74.7,74.7,30.02,SW,221,5.4,9.6,100,0.00,,SKC,0.00,VWS V14.01,2013-07-07 06:59:00,
2013-07-07 03:00:00,74.7,74.7,30.02,WSW,238,3.5,9.6,100,0.00,,SKC,0.00,VWS V14.01,2013-07-07 07:00:00,
2013-07-07 03:01:00,74.7,74.7,30.02,SSW,195,3.3,9.6,100,0.00,,SKC,0.00,VWS V14.01,2013-07-07 07:01:00,
2013-07-07 03:04:00,74.6,74.6,30.02,WSW,242,6.8,9.6,100,0.00,,SKC,0.00,VWS V14.01,2013-07-07 07:04:00,
2013-07-07 03:05:00,74.6,74.6,30.02,SW,226,0.0,9.6,100,0.00,,SKC,0.00,VWS V14.01,2013-07-07 07:05:00,
2013-07-07 03:06:00,74.7,74.7,30.02,SW,219,4.8,9.6,100,0.00,,SKC,0.00,VWS V14.01,2013-07-07 07:06:00,
2013-07-07 03:09:00,74.8,74.8,30.02,SSW,202,5.7,9.6,100,0.00,,SKC,0.00,VWS V14.01,2013-07-07 07:09:00,
2013-07-07 03:10:00,74.7,74.7,30.02,SW,226,0.0,9.6,100,0.00,,SKC,0.00,VWS V14.01,2013-07-07 07:10:00,
2013-07-07 03:11:00,74.7,74.7,30.02,SW,226,0.0,9.6,100,0.00,,SKC,0.00,VWS V14.01,2013-07-07 07:11:00,
2013-07-07 03:14:00,74.8,74.8,30.02,SSW,210,0.0,9.6,100,0.00,,SKC,0.00,VWS V14.01,2013-07-07 07:14:00,
2013-07-07 03:15:00,74.8,74.8,30.01,SSW,201,5.7,9.6,100,0.00,,SKC,0.00,VWS V14.01,2013-07-07 07:15:00,
2013-07-07 03:16:00,74.8,74.8,30.01,SSW,201,0.0,9.6,100,0.00,,SKC,0.00,VWS V14.01,2013-07-07 07:16:00,
2013-07-07 03:17:00,74.7,74.7,30.01,North,359,0.6,9.6,100,0.00,,SKC,0.00,VWS V14.01,2013-07-07 07:17:00,
2013-07-07 03:19:00,74.7,74.7,30.02,SSW,208,0.0,9.6,100,0.00,,SKC,0.00,VWS V14.01,2013-07-07 07:19:00,
2013-07-07 03:20:00,74.7,74.7,30.01,SSW,208,0.0,9.6,100,0.00,,SKC,0.00,VWS V14.01,2013-07-07 07:20:00,
2013-07-07 03:21:00,74.7,74.7,30.02,SSW,198,6.3,9.6,100,0.00,,SKC,0.00,VWS V14.01,2013-07-07 07:21:00,
2013-07-07 03:22:00,74.8,74.8,30.02,SW,218,0.0,9.6,100,0.00,,SKC,0.00,VWS V14.01,2013-07-07 07:22:00,
2013-07-07 03:24:00,74.8,74.8,30.02,North,359,0.0,9.6,100,0.00,,SKC,0.00,VWS V14.01,2013-07-07 07:24:00,
2013-07-07 03:25:00,74.8,74.8,30.02,SW,217,3.4,9.6,100,0.00,,SKC,0.00,VWS V14.01,2013-07-07 07:25:00,
2013-07-07 03:26:00,74.8,74.8,30.02,SW,226,0.0,9.6,100,0.00,,SKC,0.00,VWS V14.01,2013-07-07 07:26:00,
2013-07-07 03:27:00,74.8,74.8,30.02,SW,226,0.0,9.6,100,0.00,,SKC,0.00,VWS V14.01,2013-07-07 07:27:00,
2013-07-07 03:29:00,74.8,74.8,30.02,SW,231,0.0,9.6,100,0.00,,SKC,0.00,VWS V14.01,2013-07-07 07:29:00,
2013-07-07 03:30:00,74.8,74.8,30.01,SW,231,0.0,9.6,100,0.00,,SKC,0.00,VWS V14.01,2013-07-07 07:30:00,
2013-07-07 03:32:00,74.8,74.8,30.01,SSW,210,5.4,9.6,100,0.00,,SKC,0.00,VWS V14.01,2013-07-07 07:32:00,
2013-07-07 03:34:00,74.8,74.8,30.01,SW,229,0.0,9.6,100,0.00,,SKC,0.00,VWS V14.01,2013-07-07 07:34:00,
2013-07-07 03:35:00,74.7,74.7,30.02,SW,229,0.0,9.6,100,0.00,,SKC,0.00,VWS V14.01,2013-07-07 07:35:00,
2013-07-07 03:36:00,74.7,74.7,30.02,SW,229,0.0,9.6,100,0.00,,SKC,0.00,VWS V14.01,2013-07-07 07:36:00,
2013-07-07 03:37:00,74.7,74.8,30.01,WSW,249,0.0,9.6,100,0.00,,SKC,0.00,VWS V14.01,2013-07-07 07:37:00,
2013-07-07 03:39:00,74.8,74.8,30.01,South,181,0.0,9.6,100,0.00,,SKC,0.00,VWS V14.01,2013-07-07 07:39:00,
2013-07-07 03:40:00,74.8,74.8,30.01,South,183,9.4,10.4,100,0.00,,SKC,0.00,VWS V14.01,2013-07-07 07:40:00,
2013-07-07 03:41:00,74.7,74.7,30.01,South,183,0.0,10.4,100,0.00,,SKC,0.00,VWS V14.01,2013-07-07 07:41:00,
2013-07-07 03:42:00,74.7,74.7,30.01,SW,224,0.0,10.4,100,0.00,,SKC,0.00,VWS V14.01,2013-07-07 07:42:00,
2013-07-07 03:45:00,74.9,74.9,30.01,SW,218,0.0,10.4,100,0.00,,SKC,0.00,VWS V14.01,2013-07-07 07:45:00,
2013-07-07 03:46:00,74.9,74.9,30.01,SW,226,0.3,10.4,100,0.00,,SKC,0.00,VWS V14.01,2013-07-07 07:46:00,
2013-07-07 03:47:00,74.9,74.9,30.01,WSW,243,6.8,10.4,100,0.00,,SKC,0.00,VWS V14.01,2013-07-07 07:47:00,
2013-07-07 03:50:00,75.0,75.0,30.01,SSW,205,0.0,10.4,100,0.00,,SKC,0.00,VWS V14.01,2013-07-07 07:50:00,
2013-07-07 03:51:00,74.9,74.9,30.01,SW,215,2.9,10.4,100,0.00,,SKC,0.00,VWS V14.01,2013-07-07 07:51:00,
2013-07-07 03:52:00,75.0,75.0,30.01,SW,217,0.0,10.4,100,0.00,,SKC,0.00,VWS V14.01,2013-07-07 07:52:00,
2013-07-07 03:53:00,75.1,75.1,30.01,SW,217,0.0,10.4,100,0.00,,SKC,0.00,VWS V14.01,2013-07-07 07:53:00,
2013-07-07 03:55:00,75.1,75.1,30.01,North,359,5.1,10.4,100,0.00,,SKC,0.00,VWS V14.01,2013-07-07 07:55:00,
2013-07-07 03:56:00,75.1,75.1,30.01,North,359,0.0,10.4,100,0.00,,SKC,0.00,VWS V14.01,2013-07-07 07:56:00,
2013-07-07 03:57:00,75.0,75.0,30.01,SW,224,0.0,10.4,100,0.00,,SKC,0.00,VWS V14.01,2013-07-07 07:57:00,
2013-07-07 03:58:00,75.1,75.1,30.01,SW,224,1.0,10.4,100,0.00,,SKC,0.00,VWS V14.01,2013-07-07 07:58:00,
2013-07-07 04:00:00,75.1,75.1,30.01,North,359,0.0,10.4,100,0.00,,SKC,0.00,VWS V14.01,2013-07-07 08:00:00,
2013-07-07 04:01:00,75.0,75.0,30.01,North,359,0.0,10.4,100,0.00,,SKC,0.00,VWS V14.01,2013-07-07 08:01:00,
2013-07-07 04:02:00,75.1,75.1,30.01,WSW,242,0.4,10.4,100,0.00,,SKC,0.00,VWS V14.01,2013-07-07 08:02:00,
2013-07-07 04:03:00,75.1,75.1,30.01,SSW,208,0.0,10.4,100,0.00,,SKC,0.00,VWS V14.01,2013-07-07 08:03:00,
2013-07-07 04:05:00,75.1,75.1,30.01,SSW,212,0.0,10.4,100,0.00,,SKC,0.00,VWS V14.01,2013-07-07 08:05:00,
2013-07-07 04:06:00,75.1,75.1,30.01,SSW,194,0.0,10.4,100,0.00,,SKC,0.00,VWS V14.01,2013-07-07 08:06:00,
2013-07-07 04:07:00,75.1,75.1,30.01,SW,225,0.0,10.4,100,0.00,,SKC,0.00,VWS V14.01,2013-07-07 08:07:00,
2013-07-07 04:08:00,75.1,75.1,30.01,SW,225,0.0,10.4,100,0.00,,SKC,0.00,VWS V14.01,2013-07-07 08:08:00,
2013-07-07 04:10:00,75.1,75.1,30.01,SW,231,0.2,10.4,100,0.00,,SKC,0.00,VWS V14.01,2013-07-07 08:10:00,
2013-07-07 04:11:00,75.2,75.1,30.01,SSW,202,0.0,10.4,100,0.00,,SKC,0.00,VWS V14.01,2013-07-07 08:11:00,
2013-07-07 04:13:00,75.2,75.2,30.01,SSW,202,4.4,10.4,100,0.00,,SKC,0.00,VWS V14.01,2013-07-07 08:13:00,
2013-07-07 04:15:00,75.1,75.1,30.01,North,359,0.0,10.4,100,0.00,,SKC,0.00,VWS V14.01,2013-07-07 08:15:00,
2013-07-07 04:16:00,75.1,75.1,30.01,North,359,0.0,10.4,100,0.00,,SKC,0.00,VWS V14.01,2013-07-07 08:16:00,
2013-07-07 04:18:00,75.1,75.1,30.02,North,359,0.0,10.4,100,0.00,,SKC,0.00,VWS V14.01,2013-07-07 08:18:00,
2013-07-07 04:20:00,75.1,75.1,30.02,SW,221,0.0,10.4,100,0.00,,SKC,0.00,VWS V14.01,2013-07-07 08:20:00,
2013-07-07 04:21:00,75.1,75.1,30.01,North,359,7.3,10.4,100,0.00,,SKC,0.00,VWS V14.01,2013-07-07 08:21:00,
2013-07-07 04:22:00,75.2,75.2,30.01,North,359,9.3,10.4,100,0.00,,SKC,0.00,VWS V14.01,2013-07-07 08:22:00,
2013-07-07 04:23:00,75.1,75.1,30.02,SW,222,0.0,10.4,100,0.00,,SKC,0.00,VWS V14.01,2013-07-07 08:23:00,
2013-07-07 04:24:00,75.2,75.2,30.02,SW,222,0.0,10.4,100,0.00,,SKC,0.00,VWS V14.01,2013-07-07 08:24:00,
2013-07-07 04:25:00,75.2,75.2,30.02,WSW,243,0.0,10.4,100,0.00,,SKC,0.00,VWS V14.01,2013-07-07 08:25:00,
2013-07-07 04:26:00,75.1,75.1,30.02,SW,232,6.6,10.4,100,0.00,,SKC,0.00,VWS V14.01,2013-07-07 08:26:00,
2013-07-07 04:27:00,75.2,75.2,30.02,SW,232,0.0,10.4,100,0.00,,SKC,0.00,VWS V14.01,2013-07-07 08:27:00,
2013-07-07 04:28:00,75.2,75.2,30.02,SW,218,0.0,10.4,100,0.00,,SKC,0.00,VWS V14.01,2013-07-07 08:28:00,
2013-07-07 04:29:00,75.2,75.2,30.02,South,173,5.2,10.4,100,0.00,,SKC,0.00,VWS V14.01,2013-07-07 08:29:00,
2013-07-07 04:30:00,75.2,75.2,30.02,SW,219,0.0,10.4,100,0.00,,SKC,0.00,VWS V14.01,2013-07-07 08:30:00,
2013-07-07 04:31:00,75.2,75.2,30.02,SSW,200,3.3,10.4,100,0.00,,SKC,0.00,VWS V14.01,2013-07-07 08:31:00,
2013-07-07 04:32:00,75.2,75.2,30.02,North,359,7.0,10.4,100,0.00,,SKC,0.00,VWS V14.01,2013-07-07 08:32:00,
2013-07-07 04:33:00,75.2,75.2,30.02,SW,228,0.0,10.4,100,0.00,,SKC,0.00,VWS V14.01,2013-07-07 08:33:00,
2013-07-07 04:34:00,75.3,75.3,30.02,North,359,9.0,10.4,100,0.00,,SKC,0.00,VWS V14.01,2013-07-07 08:34:00,
2013-07-07 04:36:00,75.2,75.2,30.02,SSW,207,4.3,10.4,100,0.00,,SKC,0.00,VWS V14.01,2013-07-07 08:36:00,
2013-07-07 04:37:00,75.3,75.3,30.02,SW,215,0.0,10.4,100,0.00,,SKC,0.00,VWS V14.01,2013-07-07 08:37:00,
2013-07-07 04:38:00,75.2,75.2,30.02,SW,215,3.7,10.4,100,0.00,,SKC,0.00,VWS V14.01,2013-07-07 08:38:00,
2013-07-07 04:39:00,75.3,75.2,30.02,South,186,0.0,10.4,100,0.00,,SKC,0.00,VWS V14.01,2013-07-07 08:39:00,
2013-07-07 04:41:00,75.3,75.3,30.02,SSW,212,0.0,10.4,100,0.00,,SKC,0.00,VWS V14.01,2013-07-07 08:41:00,
2013-07-07 04:42:00,75.3,75.3,30.02,SW,233,0.0,10.4,100,0.00,,SKC,0.00,VWS V14.01,2013-07-07 08:42:00,
2013-07-07 04:43:00,75.3,75.3,30.02,North,359,1.0,10.4,100,0.00,,SKC,0.00,VWS V14.01,2013-07-07 08:43:00,
2013-07-07 04:44:00,75.3,75.3,30.02,SW,229,0.0,10.4,100,0.00,,SKC,0.00,VWS V14.01,2013-07-07 08:44:00,
2013-07-07 04:46:00,75.3,75.3,30.02,SSE,167,4.5,10.4,100,0.00,,SKC,0.00,VWS V14.01,2013-07-07 08:46:00,
2013-07-07 04:47:00,75.3,75.3,30.02,SSW,211,0.0,10.4,100,0.00,,SKC,0.00,VWS V14.01,2013-07-07 08:47:00,
2013-07-07 04:48:00,75.3,75.3,30.02,SW,236,0.0,10.4,100,0.00,,SKC,0.00,VWS V14.01,2013-07-07 08:48:00,
2013-07-07 04:49:00,75.3,75.3,30.02,SW,215,0.0,10.4,100,0.00,,SKC,0.00,VWS V14.01,2013-07-07 08:49:00,
2013-07-07 04:51:00,75.3,75.3,30.02,WSW,243,0.0,10.4,100,0.00,,SKC,0.00,VWS V14.01,2013-07-07 08:51:00,
2013-07-07 04:52:00,75.3,75.3,30.02,SSW,207,0.0,10.4,100,0.00,,SKC,0.00,VWS V14.01,2013-07-07 08:52:00,
2013-07-07 04:53:00,75.3,75.3,30.02,North,359,0.0,10.4,100,0.00,,SKC,0.00,VWS V14.01,2013-07-07 08:53:00,
2013-07-07 04:54:00,75.3,75.3,30.02,SSW,205,0.0,10.4,100,0.00,,SKC,0.00,VWS V14.01,2013-07-07 08:54:00,
2013-07-07 04:56:00,75.3,75.3,30.02,SW,215,0.0,10.4,100,0.00,,SKC,0.00,VWS V14.01,2013-07-07 08:56:00,
2013-07-07 04:57:00,75.4,75.4,30.02,North,359,0.0,10.4,100,0.00,,SKC,0.00,VWS V14.01,2013-07-07 08:57:00,
2013-07-07 04:59:00,75.4,75.4,30.02,South,177,2.2,10.4,100,0.00,,SKC,0.00,VWS V14.01,2013-07-07 08:59:00,
2013-07-07 05:01:00,75.4,75.4,30.02,SW,231,0.0,10.4,100,0.00,,SKC,0.00,VWS V14.01,2013-07-07 09:01:00,
2013-07-07 05:02:00,75.4,75.4,30.02,SW,231,0.0,10.4,100,0.00,,SKC,0.00,VWS V14.01,2013-07-07 09:02:00,
2013-07-07 05:04:00,75.4,75.3,30.03,SW,224,0.0,10.4,100,0.00,,SKC,0.00,VWS V14.01,2013-07-07 09:04:00,
2013-07-07 05:05:00,75.4,75.4,30.03,SW,224,0.0,10.4,100,0.00,,SKC,0.00,VWS V14.01,2013-07-07 09:05:00,
2013-07-07 05:06:00,75.4,75.4,30.03,SW,224,0.0,10.4,100,0.00,,SKC,0.00,VWS V14.01,2013-07-07 09:06:00,
2013-07-07 05:07:00,75.4,75.4,30.03,SW,224,0.0,10.4,100,0.00,,SKC,0.00,VWS V14.01,2013-07-07 09:07:00,
2013-07-07 05:09:00,75.4,75.4,30.03,SW,224,0.0,10.4,100,0.00,,SKC,0.00,VWS V14.01,2013-07-07 09:09:00,
2013-07-07 05:10:00,75.4,75.4,30.03,SW,232,0.0,10.4,100,0.00,,SKC,0.00,VWS V14.01,2013-07-07 09:10:00,
2013-07-07 05:11:00,75.3,75.3,30.03,SW,232,0.0,10.4,100,0.00,,SKC,0.00,VWS V14.01,2013-07-07 09:11:00,
2013-07-07 05:12:00,75.4,75.4,30.03,SW,232,0.0,10.4,100,0.00,,SKC,0.00,VWS V14.01,2013-07-07 09:12:00,
2013-07-07 05:14:00,75.4,75.4,30.03,SW,232,0.0,10.4,100,0.00,,SKC,0.00,VWS V14.01,2013-07-07 09:14:00,
2013-07-07 05:15:00,75.4,75.4,30.03,SW,232,0.2,10.4,100,0.00,,SKC,0.00,VWS V14.01,2013-07-07 09:15:00,
2013-07-07 05:16:00,75.3,75.3,30.03,North,359,0.0,10.4,100,0.00,,SKC,0.00,VWS V14.01,2013-07-07 09:16:00,
2013-07-07 05:17:00,75.5,75.5,30.03,North,359,0.0,10.4,100,0.00,,SKC,0.00,VWS V14.01,2013-07-07 09:17:00,
2013-07-07 05:19:00,75.4,75.4,30.02,North,359,0.0,10.4,100,0.00,,SKC,0.00,VWS V14.01,2013-07-07 09:19:00,
2013-07-07 05:20:00,75.4,75.4,30.02,SW,217,0.0,10.4,100,0.00,,SKC,0.00,VWS V14.01,2013-07-07 09:20:00,
2013-07-07 05:21:00,75.3,75.3,30.02,SW,217,0.0,10.4,100,0.00,,SKC,0.00,VWS V14.01,2013-07-07 09:21:00,
2013-07-07 05:22:00,75.3,75.3,30.02,SW,217,0.0,10.4,100,0.00,,SKC,0.00,VWS V14.01,2013-07-07 09:22:00,
2013-07-07 05:23:00,75.4,75.4,30.02,SW,217,0.0,10.4,100,0.00,,SKC,0.00,VWS V14.01,2013-07-07 09:23:00,
2013-07-07 05:24:00,75.4,75.4,30.03,SW,226,0.0,10.4,100,0.00,,SKC,0.00,VWS V14.01,2013-07-07 09:24:00,
2013-07-07 05:25:00,75.4,75.4,30.03,SW,226,0.0,10.4,100,0.00,,SKC,0.00,VWS V14.01,2013-07-07 09:25:00,
2013-07-07 05:27:00,75.4,75.4,30.03,SSW,211,0.0,10.4,100,0.00,,SKC,0.00,VWS V14.01,2013-07-07 09:27:00,
2013-07-07 05:28:00,75.4,75.4,30.03,SSW,211,0.0,10.4,100,0.00,,SKC,0.00,VWS V14.01,2013-07-07 09:28:00,
2013-07-07 05:29:00,75.4,75.4,30.03,SSW,211,0.0,10.4,100,0.00,,SKC,0.00,VWS V14.01,2013-07-07 09:29:00,
2013-07-07 05:30:00,75.4,75.4,30.03,SSW,211,0.0,10.4,100,0.00,,SKC,0.00,VWS V14.01,2013-07-07 09:30:00,
2013-07-07 05:32:00,75.5,75.4,30.03,North,359,0.0,10.4,100,0.00,,SKC,0.00,VWS V14.01,2013-07-07 09:32:00,
2013-07-07 05:33:00,75.6,75.6,30.03,North,359,0.0,10.4,100,0.00,,SKC,0.00,VWS V14.01,2013-07-07 09:33:00,
2013-07-07 05:34:00,75.6,75.6,30.03,North,359,0.0,10.4,100,0.00,,SKC,0.00,VWS V14.01,2013-07-07 09:34:00,
2013-07-07 05:36:00,75.5,75.5,30.02,North,359,0.0,10.4,100,0.00,,SKC,0.00,VWS V14.01,2013-07-07 09:36:00,
2013-07-07 05:37:00,75.6,75.6,30.02,North,359,0.0,10.4,100,0.00,,SKC,0.00,VWS V14.01,2013-07-07 09:37:00,
2013-07-07 05:38:00,75.6,75.6,30.02,North,359,0.0,10.4,100,0.00,,SKC,0.00,VWS V14.01,2013-07-07 09:38:00,
2013-07-07 05:39:00,75.7,75.6,30.02,North,359,0.0,10.4,100,0.00,,SKC,0.00,VWS V14.01,2013-07-07 09:39:00,
2013-07-07 05:41:00,75.6,75.6,30.02,SSW,207,0.0,10.4,100,0.00,,SKC,0.00,VWS V14.01,2013-07-07 09:41:00,
2013-07-07 05:42:00,75.7,75.7,30.02,SSW,207,0.0,10.4,100,0.00,,SKC,0.00,VWS V14.01,2013-07-07 09:42:00,
2013-07-07 05:43:00,75.6,75.6,30.02,SSW,207,0.0,10.4,100,0.00,,SKC,0.00,VWS V14.01,2013-07-07 09:43:00,
2013-07-07 05:45:00,75.7,75.7,30.02,SSW,207,0.0,10.4,100,0.00,,SKC,0.00,VWS V14.01,2013-07-07 09:45:00,
2013-07-07 05:46:00,75.6,75.6,30.02,SSW,207,0.0,10.4,100,0.00,,SKC,0.00,VWS V14.01,2013-07-07 09:46:00,
2013-07-07 05:48:00,75.6,75.6,30.02,SSW,207,0.0,10.4,100,0.00,,SKC,0.00,VWS V14.01,2013-07-07 09:48:00,
2013-07-07 05:50:00,75.6,75.6,30.02,SSW,207,0.0,10.4,100,0.00,,SKC,0.00,VWS V14.01,2013-07-07 09:50:00,
2013-07-07 05:51:00,75.7,75.7,30.02,SSW,207,0.0,10.4,100,0.00,,SKC,0.00,VWS V14.01,2013-07-07 09:51:00,
2013-07-07 05:53:00,75.7,75.7,30.02,SSW,207,0.0,10.4,100,0.00,,SKC,0.00,VWS V14.01,2013-07-07 09:53:00,
2013-07-07 05:55:00,75.7,75.7,30.03,SW,226,0.0,10.4,100,0.00,,SKC,0.00,VWS V14.01,2013-07-07 09:55:00,
2013-07-07 05:56:00,75.8,75.8,30.02,SW,226,0.0,10.4,100,0.00,,SKC,0.00,VWS V14.01,2013-07-07 09:56:00,
2013-07-07 05:58:00,75.8,75.8,30.02,SW,226,0.0,10.4,100,0.00,,SKC,0.00,VWS V14.01,2013-07-07 09:58:00,
2013-07-07 05:59:00,75.8,75.8,30.02,SW,226,0.0,10.4,100,0.00,,SKC,0.00,VWS V14.01,2013-07-07 09:59:00,
2013-07-07 06:00:00,75.8,75.8,30.02,WSW,240,3.4,10.4,100,0.00,,SKC,0.00,VWS V14.01,2013-07-07 10:00:00,
2013-07-07 06:01:00,75.8,75.8,30.02,SW,236,0.0,10.4,100,0.00,,SKC,0.00,VWS V14.01,2013-07-07 10:01:00,
2013-07-07 06:03:00,75.8,75.8,30.03,WSW,240,0.0,10.4,100,0.00,,SKC,0.00,VWS V14.01,2013-07-07 10:03:00,
2013-07-07 06:04:00,75.8,75.8,30.02,North,359,0.0,10.4,100,0.00,,SKC,0.00,VWS V14.01,2013-07-07 10:04:00,
2013-07-07 06:06:00,75.9,75.9,30.03,North,359,0.0,10.4,100,0.00,,SKC,0.00,VWS V14.01,2013-07-07 10:06:00,
2013-07-07 06:08:00,75.9,76.0,30.03,South,177,5.5,10.4,100,0.00,,SKC,0.00,VWS V14.01,2013-07-07 10:08:00,
2013-07-07 06:09:00,75.9,75.9,30.03,SW,226,0.0,10.4,100,0.00,,SKC,0.00,VWS V14.01,2013-07-07 10:09:00,
2013-07-07 06:11:00,75.9,75.9,30.03,SW,226,0.0,10.4,100,0.00,,SKC,0.00,VWS V14.01,2013-07-07 10:11:00,
2013-07-07 06:13:00,75.9,75.9,30.03,SW,221,0.0,10.4,100,0.00,,SKC,0.00,VWS V14.01,2013-07-07 10:13:00,
2013-07-07 06:15:00,75.9,75.9,30.03,SSW,210,4.0,10.4,100,0.00,,SKC,0.00,VWS V14.01,2013-07-07 10:15:00,
2013-07-07 06:16:00,75.9,75.9,30.03,SSW,210,0.0,10.4,100,0.00,,SKC,0.00,VWS V14.01,2013-07-07 10:16:00,
2013-07-07 06:18:00,75.9,75.9,30.03,SW,218,0.0,10.4,100,0.00,,SKC,0.00,VWS V14.01,2013-07-07 10:18:00,
2013-07-07 06:19:00,75.8,75.8,30.03,SW,218,0.0,10.4,100,0.00,,SKC,0.00,VWS V14.01,2013-07-07 10:19:00,
2013-07-07 06:20:00,75.9,75.9,30.03,SW,218,0.9,10.4,100,0.00,,SKC,0.00,VWS V14.01,2013-07-07 10:20:00,
2013-07-07 06:21:00,75.9,75.9,30.03,SW,218,0.0,10.4,100,0.00,,SKC,0.00,VWS V14.01,2013-07-07 10:21:00,
2013-07-07 06:23:00,75.9,75.9,30.03,SSW,201,0.0,10.4,100,0.00,,SKC,0.00,VWS V14.01,2013-07-07 10:23:00,
2013-07-07 06:24:00,75.9,75.9,30.03,SSW,201,0.0,10.4,100,0.00,,SKC,0.00,VWS V14.01,2013-07-07 10:24:00,
2013-07-07 06:25:00,75.9,75.9,30.03,SW,233,0.0,10.4,100,0.00,,SKC,0.00,VWS V14.01,2013-07-07 10:25:00,
2013-07-07 06:26:00,75.9,75.9,30.03,SW,233,0.0,10.4,100,0.00,,SKC,0.00,VWS V14.01,2013-07-07 10:26:00,
2013-07-07 06:29:00,75.9,75.9,30.03,South,180,0.0,10.4,100,0.00,,SKC,0.00,VWS V14.01,2013-07-07 10:29:00,
2013-07-07 06:30:00,75.9,75.9,30.03,South,180,0.0,10.4,100,0.00,,SKC,0.00,VWS V14.01,2013-07-07 10:30:00,
2013-07-07 06:31:00,75.9,75.9,30.03,South,180,0.0,10.4,100,0.00,,SKC,0.00,VWS V14.01,2013-07-07 10:31:00,
2013-07-07 06:34:00,75.9,75.9,30.03,South,180,0.0,10.4,100,0.00,,SKC,0.00,VWS V14.01,2013-07-07 10:34:00,
2013-07-07 06:35:00,75.9,75.9,30.03,South,180,0.0,10.4,100,0.00,,SKC,0.00,VWS V14.01,2013-07-07 10:35:00,
2013-07-07 06:36:00,75.9,75.9,30.03,South,180,0.0,10.4,100,0.00,,SKC,0.00,VWS V14.01,2013-07-07 10:36:00,
2013-07-07 06:37:00,75.9,75.9,30.03,South,180,0.0,10.4,100,0.00,,SKC,0.00,VWS V14.01,2013-07-07 10:37:00,
2013-07-07 06:39:00,75.9,75.9,30.04,South,180,0.0,10.4,100,0.00,,SKC,0.00,VWS V14.01,2013-07-07 10:39:00,
2013-07-07 06:40:00,76.0,76.0,30.04,South,180,0.0,10.4,100,0.00,,SKC,0.00,VWS V14.01,2013-07-07 10:40:00,
2013-07-07 06:42:00,75.9,75.9,30.04,South,180,0.0,10.4,100,0.00,,SKC,0.00,VWS V14.01,2013-07-07 10:42:00,
2013-07-07 06:44:00,75.9,75.9,30.04,North,359,0.0,10.4,100,0.00,,SKC,0.00,VWS V14.01,2013-07-07 10:44:00,
2013-07-07 06:46:00,75.9,75.9,30.04,SW,215,0.0,10.4,100,0.00,,SKC,0.00,VWS V14.01,2013-07-07 10:46:00,
2013-07-07 06:47:00,75.9,75.9,30.04,SW,215,0.0,10.4,100,0.00,,SKC,0.00,VWS V14.01,2013-07-07 10:47:00,
2013-07-07 06:49:00,75.9,75.9,30.04,SSW,211,0.0,10.4,100,0.00,,SKC,0.00,VWS V14.01,2013-07-07 10:49:00,
2013-07-07 06:51:00,75.9,75.9,30.04,SW,235,0.0,10.4,100,0.00,,SKC,0.00,VWS V14.01,2013-07-07 10:51:00,
2013-07-07 06:52:00,75.8,75.8,30.04,SW,225,0.0,10.4,100,0.00,,SKC,0.00,VWS V14.01,2013-07-07 10:52:00,
2013-07-07 06:54:00,75.8,75.8,30.04,SW,224,3.0,10.4,100,0.00,,SKC,0.00,VWS V14.01,2013-07-07 10:54:00,
2013-07-07 06:56:00,75.9,75.9,30.04,North,359,0.0,10.4,100,0.00,,SKC,0.00,VWS V14.01,2013-07-07 10:56:00,
2013-07-07 06:57:00,75.8,75.8,30.04,SW,224,4.7,10.4,100,0.00,,SKC,0.00,VWS V14.01,2013-07-07 10:57:00,
2013-07-07 06:59:00,75.8,75.8,30.04,WSW,248,0.0,10.4,100,0.00,,SKC,0.00,VWS V14.01,2013-07-07 10:59:00,
2013-07-07 07:01:00,75.7,75.7,30.04,SW,225,5.7,10.4,100,0.00,,SKC,0.00,VWS V14.01,2013-07-07 11:01:00,
2013-07-07 07:02:00,75.7,75.7,30.04,SW,219,0.0,10.4,100,0.00,,SKC,0.00,VWS V14.01,2013-07-07 11:02:00,
2013-07-07 07:04:00,75.7,75.7,30.04,SW,219,0.0,10.4,100,0.00,,SKC,0.00,VWS V14.01,2013-07-07 11:04:00,
2013-07-07 07:06:00,75.7,75.7,30.04,North,359,0.0,10.4,100,0.00,,SKC,0.00,VWS V14.01,2013-07-07 11:06:00,
2013-07-07 07:07:00,75.7,75.7,30.04,South,188,5.9,10.4,100,0.00,,SKC,0.00,VWS V14.01,2013-07-07 11:07:00,
2013-07-07 07:08:00,75.6,75.6,30.04,North,359,0.2,10.4,100,0.00,,SKC,0.00,VWS V14.01,2013-07-07 11:08:00,
2013-07-07 07:09:00,75.7,75.7,30.04,North,359,0.4,10.4,100,0.00,,SKC,0.00,VWS V14.01,2013-07-07 11:09:00,
2013-07-07 07:10:00,75.7,75.7,30.04,SW,228,3.3,10.4,100,0.00,,SKC,0.00,VWS V14.01,2013-07-07 11:10:00,
2013-07-07 07:11:00,75.6,75.6,30.04,SW,221,0.0,10.4,100,0.00,,SKC,0.00,VWS V14.01,2013-07-07 11:11:00,
2013-07-07 07:12:00,75.6,75.6,30.04,SW,221,0.0,10.4,100,0.00,,SKC,0.00,VWS V14.01,2013-07-07 11:12:00,
2013-07-07 07:13:00,75.5,75.5,30.04,SW,221,0.0,10.4,100,0.00,,SKC,0.00,VWS V14.01,2013-07-07 11:13:00,
2013-07-07 07:15:00,75.5,75.5,30.04,SW,221,0.0,10.4,100,0.00,,SKC,0.00,VWS V14.01,2013-07-07 11:15:00,
2013-07-07 07:16:00,75.5,75.5,30.04,SW,221,0.0,10.4,100,0.00,,SKC,0.00,VWS V14.01,2013-07-07 11:16:00,
2013-07-07 07:17:00,75.4,75.4,30.04,SW,221,0.3,10.4,100,0.00,,SKC,0.00,VWS V14.01,2013-07-07 11:17:00,
2013-07-07 07:18:00,75.4,75.4,30.04,North,359,6.7,10.4,100,0.00,,SKC,0.00,VWS V14.01,2013-07-07 11:18:00,
2013-07-07 07:20:00,75.4,75.4,30.04,North,359,0.0,10.4,100,0.00,,SKC,0.00,VWS V14.01,2013-07-07 11:20:00,
2013-07-07 07:21:00,75.4,75.4,30.04,North,359,0.0,10.4,100,0.00,,SKC,0.00,VWS V14.01,2013-07-07 11:21:00,
2013-07-07 07:22:00,75.4,75.4,30.04,North,359,0.0,10.4,100,0.00,,SKC,0.00,VWS V14.01,2013-07-07 11:22:00,
2013-07-07 07:23:00,75.4,75.4,30.04,North,359,0.0,10.4,100,0.00,,SKC,0.00,VWS V14.01,2013-07-07 11:23:00,
2013-07-07 07:25:00,75.4,75.4,30.04,South,191,1.7,10.4,100,0.00,,SKC,0.00,VWS V14.01,2013-07-07 11:25:00,
2013-07-07 07:27:00,75.4,75.4,30.04,SSW,200,3.0,10.4,100,0.00,,SKC,0.00,VWS V14.01,2013-07-07 11:27:00,
2013-07-07 07:28:00,75.3,75.3,30.04,WSW,242,0.0,10.4,100,0.00,,SKC,0.00,VWS V14.01,2013-07-07 11:28:00,
2013-07-07 07:30:00,75.3,75.3,30.04,SSE,152,0.6,10.4,100,0.00,,SKC,0.00,VWS V14.01,2013-07-07 11:30:00,
2013-07-07 07:32:00,75.3,75.3,30.04,SSE,158,0.0,10.4,100,0.00,,SKC,0.00,VWS V14.01,2013-07-07 11:32:00,
2013-07-07 07:33:00,75.3,75.3,30.04,SSW,197,3.4,10.4,100,0.00,,SKC,0.00,VWS V14.01,2013-07-07 11:33:00,
2013-07-07 07:35:00,75.2,75.2,30.04,South,184,0.0,10.4,100,0.00,,SKC,0.00,VWS V14.01,2013-07-07 11:35:00,
2013-07-07 07:36:00,75.2,75.2,30.04,SSW,194,2.5,10.4,100,0.00,,SKC,0.00,VWS V14.01,2013-07-07 11:36:00,
2013-07-07 07:37:00,75.1,75.1,30.04,SSW,193,1.1,10.4,100,0.00,,SKC,0.00,VWS V14.01,2013-07-07 11:37:00,
2013-07-07 07:38:00,75.1,75.1,30.04,SSW,198,0.0,10.4,100,0.00,,SKC,0.00,VWS V14.01,2013-07-07 11:38:00,
2013-07-07 07:40:00,75.0,75.0,30.04,SSW,198,0.0,10.4,100,0.00,,SKC,0.00,VWS V14.01,2013-07-07 11:40:00,
2013-07-07 07:41:00,74.9,74.9,30.04,South,179,0.9,10.4,100,0.00,,SKC,0.00,VWS V14.01,2013-07-07 11:41:00,
2013-07-07 07:42:00,74.9,74.9,30.04,SSW,212,0.0,10.4,100,0.00,,SKC,0.00,VWS V14.01,2013-07-07 11:42:00,
2013-07-07 07:43:00,74.8,74.8,30.04,SSW,212,0.0,10.4,100,0.00,,SKC,0.00,VWS V14.01,2013-07-07 11:43:00,
2013-07-07 07:44:00,74.8,74.8,30.04,SSW,212,0.0,10.4,100,0.00,,SKC,0.00,VWS V14.01,2013-07-07 11:44:00,
2013-07-07 07:45:00,74.7,74.7,30.04,SSW,197,0.0,10.4,100,0.00,,SKC,0.00,VWS V14.01,2013-07-07 11:45:00,
2013-07-07 07:46:00,74.7,74.7,30.04,SSW,197,0.0,10.4,100,0.00,,SKC,0.00,VWS V14.01,2013-07-07 11:46:00,
2013-07-07 07:47:00,74.8,74.8,30.04,SSW,197,0.0,10.4,100,0.00,,SKC,0.00,VWS V14.01,2013-07-07 11:47:00,
2013-07-07 07:48:00,74.8,74.8,30.04,SSW,200,0.0,10.4,100,0.00,,SKC,0.00,VWS V14.01,2013-07-07 11:48:00,
2013-07-07 07:49:00,74.7,74.7,30.04,SSW,200,0.0,10.4,100,0.00,,SKC,0.00,VWS V14.01,2013-07-07 11:49:00,
2013-07-07 07:50:00,74.9,74.9,30.04,SSW,200,0.0,10.4,100,0.00,,SKC,0.00,VWS V14.01,2013-07-07 11:50:00,
2013-07-07 07:51:00,74.9,74.9,30.04,SSW,200,0.0,10.4,100,0.00,,SKC,0.00,VWS V14.01,2013-07-07 11:51:00,
2013-07-07 07:53:00,74.9,74.9,30.04,SSW,200,0.0,10.4,100,0.00,,SKC,0.00,VWS V14.01,2013-07-07 11:53:00,
2013-07-07 07:54:00,74.9,74.9,30.04,SSW,200,0.0,10.4,100,0.00,,SKC,0.00,VWS V14.01,2013-07-07 11:54:00,
2013-07-07 07:55:00,75.0,75.0,30.04,North,359,5.0,10.4,100,0.00,,SKC,0.00,VWS V14.01,2013-07-07 11:55:00,
2013-07-07 07:56:00,75.0,75.0,30.04,SW,229,0.0,10.4,100,0.00,,SKC,0.00,VWS V14.01,2013-07-07 11:56:00,
2013-07-07 07:58:00,75.0,75.1,30.04,SW,229,0.0,10.4,100,0.00,,SKC,0.00,VWS V14.01,2013-07-07 11:58:00,
2013-07-07 07:59:00,75.1,75.1,30.04,SW,229,0.0,10.4,100,0.00,,SKC,0.00,VWS V14.01,2013-07-07 11:59:00,
2013-07-07 08:01:00,75.1,75.1,30.04,SW,229,0.0,10.4,100,0.00,,SKC,0.00,VWS V14.01,2013-07-07 12:01:00,
2013-07-07 08:02:00,75.2,75.2,30.04,SSW,210,0.5,10.4,100,0.00,,SKC,0.00,VWS V14.01,2013-07-07 12:02:00,
2013-07-07 08:03:00,75.2,75.2,30.04,South,191,0.0,10.4,100,0.00,,SKC,0.00,VWS V14.01,2013-07-07 12:03:00,
2013-07-07 08:04:00,75.2,75.2,30.05,SW,218,1.4,10.4,100,0.00,,SKC,0.00,VWS V14.01,2013-07-07 12:04:00,
2013-07-07 08:06:00,75.3,75.3,30.05,South,184,1.7,10.4,100,0.00,,SKC,0.00,VWS V14.01,2013-07-07 12:06:00,
2013-07-07 08:07:00,75.3,75.3,30.05,South,183,3.4,10.4,100,0.00,,SKC,0.00,VWS V14.01,2013-07-07 12:07:00,
2013-07-07 08:08:00,75.3,75.3,30.05,South,169,0.0,10.4,100,0.00,,SKC,0.00,VWS V14.01,2013-07-07 12:08:00,
2013-07-07 08:09:00,75.3,75.3,30.05,SSE,163,3.5,10.4,100,0.00,,SKC,0.00,VWS V14.01,2013-07-07 12:09:00,
2013-07-07 08:11:00,75.3,75.3,30.05,South,187,1.4,10.4,100,0.00,,SKC,0.00,VWS V14.01,2013-07-07 12:11:00,
2013-07-07 08:12:00,75.3,75.2,30.05,South,174,0.0,10.4,100,0.00,,SKC,0.00,VWS V14.01,2013-07-07 12:12:00,
2013-07-07 08:13:00,75.3,75.3,30.05,South,174,0.0,10.4,100,0.00,,SKC,0.00,VWS V14.01,2013-07-07 12:13:00,
2013-07-07 08:14:00,75.2,75.2,30.05,South,174,0.0,10.4,100,0.00,,SKC,0.00,VWS V14.01,2013-07-07 12:14:00,
2013-07-07 08:16:00,75.3,75.3,30.05,South,174,0.0,10.4,100,0.00,,SKC,0.00,VWS V14.01,2013-07-07 12:16:00,
2013-07-07 08:17:00,75.3,75.3,30.05,South,191,2.8,10.4,100,0.00,,SKC,0.00,VWS V14.01,2013-07-07 12:17:00,
2013-07-07 08:18:00,75.3,75.3,30.05,SW,222,2.5,10.4,100,0.00,,SKC,0.00,VWS V14.01,2013-07-07 12:18:00,
2013-07-07 08:19:00,75.3,75.3,30.05,SW,232,2.6,10.4,100,0.00,,SKC,0.00,VWS V14.01,2013-07-07 12:19:00,
2013-07-07 08:21:00,75.4,75.4,30.05,SW,222,0.0,10.4,100,0.00,,SKC,0.00,VWS V14.01,2013-07-07 12:21:00,
2013-07-07 08:22:00,75.4,75.4,30.05,SW,222,0.0,10.4,100,0.00,,SKC,0.00,VWS V14.01,2013-07-07 12:22:00,
2013-07-07 08:23:00,75.4,75.4,30.05,North,359,3.4,10.4,100,0.00,,SKC,0.00,VWS V14.01,2013-07-07 12:23:00,
2013-07-07 08:24:00,75.4,75.4,30.05,South,173,4.2,10.4,100,0.00,,SKC,0.00,VWS V14.01,2013-07-07 12:24:00,
2013-07-07 08:26:00,75.5,75.5,30.05,SSW,193,8.6,10.4,100,0.00,,SKC,0.00,VWS V14.01,2013-07-07 12:26:00,
2013-07-07 08:27:00,75.5,75.5,30.05,SSW,211,2.9,10.4,100,0.00,,SKC,0.00,VWS V14.01,2013-07-07 12:27:00,
2013-07-07 08:28:00,75.5,75.5,30.05,South,186,1.2,10.4,100,0.00,,SKC,0.00,VWS V14.01,2013-07-07 12:28:00,
2013-07-07 08:29:00,75.5,75.5,30.05,South,174,0.0,10.4,100,0.00,,SKC,0.00,VWS V14.01,2013-07-07 12:29:00,
2013-07-07 08:32:00,75.7,75.7,30.05,SSE,153,0.0,10.4,100,0.00,,SKC,0.00,VWS V14.01,2013-07-07 12:32:00,
2013-07-07 08:33:00,75.7,75.7,30.05,SSE,153,0.0,10.4,100,0.00,,SKC,0.00,VWS V14.01,2013-07-07 12:33:00,
2013-07-07 08:34:00,75.7,75.7,30.05,SSE,165,1.0,10.4,100,0.00,,SKC,0.00,VWS V14.01,2013-07-07 12:34:00,
2013-07-07 08:35:00,75.7,75.7,30.05,SW,218,3.4,10.4,100,0.00,,SKC,0.00,VWS V14.01,2013-07-07 12:35:00,
2013-07-07 08:37:00,75.8,75.8,30.05,South,188,0.0,10.4,100,0.00,,SKC,0.00,VWS V14.01,2013-07-07 12:37:00,
2013-07-07 08:38:00,75.8,75.8,30.05,South,188,0.0,10.4,100,0.00,,SKC,0.00,VWS V14.01,2013-07-07 12:38:00,
2013-07-07 08:39:00,75.8,75.8,30.05,South,188,0.0,10.4,100,0.00,,SKC,0.00,VWS V14.01,2013-07-07 12:39:00,
2013-07-07 08:40:00,75.8,75.8,30.05,SW,217,3.6,10.4,100,0.00,,SKC,0.00,VWS V14.01,2013-07-07 12:40:00,
2013-07-07 08:42:00,75.9,75.9,30.06,SSE,162,0.0,10.4,100,0.00,,SKC,0.00,VWS V14.01,2013-07-07 12:42:00,
2013-07-07 08:43:00,75.9,75.9,30.05,South,173,5.2,10.4,100,0.00,,SKC,0.00,VWS V14.01,2013-07-07 12:43:00,
2013-07-07 08:44:00,75.9,75.9,30.06,SSE,167,1.6,10.4,100,0.00,,SKC,0.00,VWS V14.01,2013-07-07 12:44:00,
2013-07-07 08:45:00,75.9,75.9,30.06,South,172,0.0,10.4,100,0.00,,SKC,0.00,VWS V14.01,2013-07-07 12:45:00,
2013-07-07 08:47:00,76.0,76.0,30.06,South,180,1.9,10.4,100,0.00,,SKC,0.00,VWS V14.01,2013-07-07 12:47:00,
2013-07-07 08:48:00,75.9,75.9,30.06,South,190,1.8,10.4,100,0.00,,SKC,0.00,VWS V14.01,2013-07-07 12:48:00,
2013-07-07 08:50:00,76.0,75.9,30.06,South,188,2.2,10.4,100,0.00,,SKC,0.00,VWS V14.01,2013-07-07 12:50:00,
2013-07-07 08:52:00,75.9,75.9,30.06,SW,218,2.4,10.4,100,0.00,,SKC,0.00,VWS V14.01,2013-07-07 12:52:00,
2013-07-07 08:53:00,76.0,76.0,30.06,SSW,193,4.0,10.4,100,0.00,,SKC,0.00,VWS V14.01,2013-07-07 12:53:00,
2013-07-07 08:54:00,76.1,76.1,30.06,SW,231,3.9,10.4,100,0.00,,SKC,0.00,VWS V14.01,2013-07-07 12:54:00,
2013-07-07 08:55:00,76.0,76.0,30.06,SW,215,2.4,10.4,100,0.00,,SKC,0.00,VWS V14.01,2013-07-07 12:55:00,
2013-07-07 08:57:00,76.1,76.0,30.06,South,191,1.7,10.4,100,0.00,,SKC,0.00,VWS V14.01,2013-07-07 12:57:00,
2013-07-07 08:58:00,76.0,76.0,30.06,South,177,0.0,10.4,100,0.00,,SKC,0.00,VWS V14.01,2013-07-07 12:58:00,
2013-07-07 09:00:00,76.1,76.1,30.05,SSW,198,2.5,10.4,100,0.00,,SKC,0.00,VWS V14.01,2013-07-07 13:00:00,
2013-07-07 09:01:00,76.1,76.1,30.06,SSW,211,5.2,10.4,100,0.00,,SKC,0.00,VWS V14.01,2013-07-07 13:01:00,
2013-07-07 09:03:00,76.1,76.1,30.06,South,173,4.0,10.4,100,0.01,,SKC,0.01,VWS V14.01,2013-07-07 13:03:00,
2013-07-07 09:04:00,76.1,76.1,30.06,SSE,163,3.7,10.4,100,0.01,,SKC,0.01,VWS V14.01,2013-07-07 13:04:00,
2013-07-07 09:05:00,76.1,76.1,30.06,South,183,4.8,10.4,100,0.01,,SKC,0.01,VWS V14.01,2013-07-07 13:05:00,
2013-07-07 09:06:00,76.1,76.1,30.06,South,174,3.4,10.4,100,0.01,,SKC,0.01,VWS V14.01,2013-07-07 13:06:00,
2013-07-07 09:08:00,76.2,76.2,30.06,South,173,3.0,10.4,100,0.01,,SKC,0.01,VWS V14.01,2013-07-07 13:08:00,
2013-07-07 09:09:00,76.2,76.2,30.05,South,172,2.9,10.4,100,0.01,,SKC,0.01,VWS V14.01,2013-07-07 13:09:00,
2013-07-07 09:10:00,76.2,76.2,30.06,South,176,2.1,10.4,100,0.01,,SKC,0.01,VWS V14.01,2013-07-07 13:10:00,
2013-07-07 09:11:00,76.2,76.2,30.06,South,169,2.5,10.4,100,0.01,,SKC,0.01,VWS V14.01,2013-07-07 13:11:00,
2013-07-07 09:13:00,76.3,76.3,30.06,South,170,1.5,10.4,100,0.01,,SKC,0.01,VWS V14.01,2013-07-07 13:13:00,
2013-07-07 09:14:00,76.3,76.3,30.06,South,183,1.8,10.4,100,0.01,,SKC,0.01,VWS V14.01,2013-07-07 13:14:00,
2013-07-07 09:15:00,76.3,76.3,30.06,SSW,212,1.1,10.4,100,0.01,,SKC,0.01,VWS V14.01,2013-07-07 13:15:00,
2013-07-07 09:16:00,76.3,76.3,30.06,SSE,166,0.7,10.4,100,0.01,,SKC,0.01,VWS V14.01,2013-07-07 13:16:00,
2013-07-07 09:18:00,76.3,76.3,30.06,SSE,166,0.0,10.4,100,0.01,,SKC,0.01,VWS V14.01,2013-07-07 13:18:00,
2013-07-07 09:19:00,76.3,76.3,30.06,SSE,166,0.0,10.4,100,0.01,,SKC,0.01,VWS V14.01,2013-07-07 13:19:00,
2013-07-07 09:20:00,76.4,76.4,30.06,SSE,152,0.6,10.4,100,0.01,,SKC,0.01,VWS V14.01,2013-07-07 13:20:00,
2013-07-07 09:21:00,76.4,76.4,30.06,SW,224,2.7,10.4,100,0.01,,SKC,0.01,VWS V14.01,2013-07-07 13:21:00,
2013-07-07 09:22:00,76.4,76.4,30.06,SW,233,1.7,10.4,100,0.01,,SKC,0.01,VWS V14.01,2013-07-07 13:22:00,
2013-07-07 09:23:00,76.4,76.4,30.06,SSW,200,0.4,10.4,100,0.01,,SKC,0.01,VWS V14.01,2013-07-07 13:23:00,
2013-07-07 09:24:00,76.4,76.4,30.06,SSW,212,0.9,10.4,100,0.01,,SKC,0.01,VWS V14.01,2013-07-07 13:24:00,
2013-07-07 09:25:00,76.4,76.4,30.06,SSW,204,0.0,10.4,100,0.01,,SKC,0.01,VWS V14.01,2013-07-07 13:25:00,
2013-07-07 09:26:00,76.4,76.4,30.06,WSW,242,0.8,10.4,100,0.01,,SKC,0.01,VWS V14.01,2013-07-07 13:26:00,
2013-07-07 09:27:00,76.4,76.4,30.06,SW,225,1.6,10.4,100,0.01,,SKC,0.01,VWS V14.01,2013-07-07 13:27:00,
2013-07-07 09:29:00,76.5,76.5,30.06,SSW,211,0.7,10.4,100,0.01,,SKC,0.01,VWS V14.01,2013-07-07 13:29:00,
2013-07-07 09:30:00,76.4,76.4,30.06,SSW,211,0.0,10.4,100,0.01,,SKC,0.01,VWS V14.01,2013-07-07 13:30:00,
2013-07-07 09:31:00,76.4,76.4,30.06,SSW,211,0.0,10.4,100,0.01,,SKC,0.01,VWS V14.01,2013-07-07 13:31:00,
2013-07-07 09:32:00,76.5,76.5,30.06,SSW,211,0.0,10.4,100,0.01,,SKC,0.01,VWS V14.01,2013-07-07 13:32:00,
2013-07-07 09:34:00,76.5,76.5,30.07,SSW,211,0.0,10.4,100,0.01,,SKC,0.01,VWS V14.01,2013-07-07 13:34:00,
2013-07-07 09:35:00,76.6,76.6,30.07,SSW,211,0.0,10.4,100,0.01,,SKC,0.01,VWS V14.01,2013-07-07 13:35:00,
2013-07-07 09:36:00,76.5,76.5,30.07,SSW,211,0.0,10.4,100,0.01,,SKC,0.01,VWS V14.01,2013-07-07 13:36:00,
2013-07-07 09:37:00,76.7,76.7,30.07,SSW,205,3.6,10.4,100,0.01,,SKC,0.01,VWS V14.01,2013-07-07 13:37:00,
2013-07-07 09:39:00,76.6,76.6,30.07,SSW,201,0.0,10.4,100,0.01,,SKC,0.01,VWS V14.01,2013-07-07 13:39:00,
2013-07-07 09:41:00,76.6,76.6,30.07,SSE,165,0.0,10.4,100,0.01,,SKC,0.01,VWS V14.01,2013-07-07 13:41:00,
2013-07-07 09:42:00,76.6,76.6,30.07,SSE,165,0.0,10.4,100,0.01,,SKC,0.01,VWS V14.01,2013-07-07 13:42:00,
2013-07-07 09:44:00,76.8,76.8,30.07,SSE,165,0.0,10.4,100,0.01,,SKC,0.01,VWS V14.01,2013-07-07 13:44:00,
2013-07-07 09:46:00,76.7,76.7,30.07,SSE,165,0.0,10.4,100,0.01,,SKC,0.01,VWS V14.01,2013-07-07 13:46:00,
2013-07-07 09:47:00,76.7,76.7,30.07,SSE,165,0.0,10.4,100,0.01,,SKC,0.01,VWS V14.01,2013-07-07 13:47:00,
2013-07-07 09:49:00,76.7,76.7,30.07,South,177,2.7,10.4,100,0.01,,SKC,0.01,VWS V14.01,2013-07-07 13:49:00,
2013-07-07 09:51:00,76.8,76.8,30.07,SSE,160,0.9,10.4,100,0.01,,SKC,0.01,VWS V14.01,2013-07-07 13:51:00,
2013-07-07 09:52:00,76.7,76.7,30.07,SSE,160,0.0,10.4,100,0.01,,SKC,0.01,VWS V14.01,2013-07-07 13:52:00,
2013-07-07 09:54:00,76.7,76.7,30.07,SSW,193,3.6,10.4,100,0.01,,SKC,0.01,VWS V14.01,2013-07-07 13:54:00,
2013-07-07 09:56:00,76.8,76.8,30.07,South,181,0.8,10.4,100,0.01,,SKC,0.01,VWS V14.01,2013-07-07 13:56:00,
2013-07-07 09:57:00,76.8,76.8,30.07,South,181,0.0,10.4,100,0.01,,SKC,0.01,VWS V14.01,2013-07-07 13:57:00,
2013-07-07 09:58:00,76.8,76.8,30.07,South,181,0.0,10.4,100,0.01,,SKC,0.01,VWS V14.01,2013-07-07 13:58:00,
2013-07-07 09:59:00,76.8,76.8,30.07,South,181,0.0,10.4,100,0.01,,SKC,0.01,VWS V14.01,2013-07-07 13:59:00,
2013-07-07 10:01:00,76.7,76.7,30.07,South,181,0.0,10.4,100,0.01,,SKC,0.01,VWS V14.01,2013-07-07 14:01:00,
2013-07-07 10:03:00,76.8,76.8,30.07,SSW,205,2.5,10.4,100,0.01,,SKC,0.01,VWS V14.01,2013-07-07 14:03:00,
2013-07-07 10:04:00,76.7,76.7,30.07,South,177,0.0,10.4,100,0.01,,SKC,0.01,VWS V14.01,2013-07-07 14:04:00,
2013-07-07 10:06:00,76.7,76.7,30.07,South,177,0.0,10.4,100,0.01,,SKC,0.01,VWS V14.01,2013-07-07 14:06:00,
2013-07-07 10:08:00,76.7,76.7,30.07,South,191,1.6,10.4,100,0.01,,SKC,0.01,VWS V14.01,2013-07-07 14:08:00,
2013-07-07 10:09:00,76.8,76.8,30.07,SSW,195,2.9,10.4,100,0.01,,SKC,0.01,VWS V14.01,2013-07-07 14:09:00,
2013-07-07 10:10:00,76.8,76.8,30.07,SSW,204,2.1,10.4,100,0.01,,SKC,0.01,VWS V14.01,2013-07-07 14:10:00,
2013-07-07 10:11:00,76.7,76.7,30.07,SSW,198,1.6,10.4,100,0.01,,SKC,0.01,VWS V14.01,2013-07-07 14:11:00,
2013-07-07 10:13:00,76.8,76.8,30.07,SSW,202,1.8,10.4,100,0.01,,SKC,0.01,VWS V14.01,2013-07-07 14:13:00,
2013-07-07 10:14:00,76.8,76.8,30.07,SSW,195,3.2,10.4,100,0.01,,SKC,0.01,VWS V14.01,2013-07-07 14:14:00,
2013-07-07 10:15:00,76.8,76.8,30.07,SSW,198,0.0,10.4,100,0.01,,SKC,0.01,VWS V14.01,2013-07-07 14:15:00,
2013-07-07 10:16:00,76.8,76.8,30.07,North,359,9.3,10.4,100,0.01,,SKC,0.01,VWS V14.01,2013-07-07 14:16:00,
2013-07-07 10:18:00,76.7,76.7,30.07,SSW,210,2.4,10.4,100,0.01,,SKC,0.01,VWS V14.01,2013-07-07 14:18:00,
2013-07-07 10:19:00,76.8,76.8,30.07,SW,233,0.9,10.4,100,0.01,,SKC,0.01,VWS V14.01,2013-07-07 14:19:00,
2013-07-07 10:20:00,76.8,76.8,30.07,SSW,200,2.3,10.4,100,0.01,,SKC,0.01,VWS V14.01,2013-07-07 14:20:00,
2013-07-07 10:21:00,76.8,76.8,30.07,South,191,4.5,10.4,100,0.01,,SKC,0.01,VWS V14.01,2013-07-07 14:21:00,
2013-07-07 10:23:00,76.8,76.8,30.07,SW,217,0.0,10.4,100,0.01,,SKC,0.01,VWS V14.01,2013-07-07 14:23:00,
2013-07-07 10:24:00,76.7,76.7,30.07,SW,217,0.0,10.4,100,0.01,,SKC,0.01,VWS V14.01,2013-07-07 14:24:00,
2013-07-07 10:25:00,76.8,76.8,30.07,SW,217,0.0,10.4,100,0.01,,SKC,0.01,VWS V14.01,2013-07-07 14:25:00,
2013-07-07 10:26:00,76.8,76.8,30.07,SW,217,0.0,10.4,100,0.01,,SKC,0.01,VWS V14.01,2013-07-07 14:26:00,
2013-07-07 10:28:00,76.9,76.9,30.07,SW,217,0.0,10.4,100,0.01,,SKC,0.01,VWS V14.01,2013-07-07 14:28:00,
2013-07-07 10:29:00,76.9,76.9,30.07,SW,217,0.0,10.4,100,0.01,,SKC,0.01,VWS V14.01,2013-07-07 14:29:00,
2013-07-07 10:30:00,76.9,76.9,30.07,SW,217,0.0,10.4,100,0.01,,SKC,0.01,VWS V14.01,2013-07-07 14:30:00,
2013-07-07 10:31:00,76.9,76.9,30.07,SSW,211,2.2,10.4,100,0.01,,SKC,0.01,VWS V14.01,2013-07-07 14:31:00,
2013-07-07 10:33:00,76.9,76.9,30.07,SSW,201,0.0,10.4,100,0.01,,SKC,0.01,VWS V14.01,2013-07-07 14:33:00,
2013-07-07 10:34:00,76.9,77.0,30.07,SSW,201,0.0,10.4,100,0.01,,SKC,0.01,VWS V14.01,2013-07-07 14:34:00,
2013-07-07 10:35:00,76.9,76.9,30.06,SSW,201,0.0,10.4,100,0.01,,SKC,0.01,VWS V14.01,2013-07-07 14:35:00,
2013-07-07 10:36:00,77.0,77.0,30.07,SSW,208,1.9,10.4,100,0.01,,SKC,0.01,VWS V14.01,2013-07-07 14:36:00,
2013-07-07 10:38:00,77.0,77.0,30.07,South,176,1.5,10.4,100,0.01,,SKC,0.01,VWS V14.01,2013-07-07 14:38:00,
2013-07-07 10:39:00,77.0,77.0,30.07,SW,217,1.8,10.4,100,0.01,,SKC,0.01,VWS V14.01,2013-07-07 14:39:00,
2013-07-07 10:40:00,77.1,77.1,30.07,SSW,210,1.3,10.4,100,0.01,,SKC,0.01,VWS V14.01,2013-07-07 14:40:00,
2013-07-07 10:41:00,77.0,77.0,30.07,SSW,200,3.0,10.4,100,0.01,,SKC,0.01,VWS V14.01,2013-07-07 14:41:00,
2013-07-07 10:44:00,77.1,77.1,30.06,SSW,208,0.0,10.4,100,0.01,,SKC,0.01,VWS V14.01,2013-07-07 14:44:00,
2013-07-07 10:45:00,77.1,77.1,30.07,SSW,208,0.0,10.4,100,0.01,,SKC,0.01,VWS V14.01,2013-07-07 14:45:00,
2013-07-07 10:46:00,77.1,77.1,30.07,SSW,208,3.5,10.4,100,0.01,,SKC,0.01,VWS V14.01,2013-07-07 14:46:00,
2013-07-07 10:49:00,77.1,77.1,30.06,SSE,163,0.0,10.4,100,0.01,,SKC,0.01,VWS V14.01,2013-07-07 14:49:00,
2013-07-07 10:50:00,77.0,77.1,30.07,SSE,163,0.0,10.4,100,0.01,,SKC,0.01,VWS V14.01,2013-07-07 14:50:00,
2013-07-07 10:51:00,77.1,77.1,30.07,SSE,163,0.0,10.4,100,0.01,,SKC,0.01,VWS V14.01,2013-07-07 14:51:00,
2013-07-07 10:54:00,77.0,77.0,30.07,SSE,163,0.0,10.4,100,0.01,,SKC,0.01,VWS V14.01,2013-07-07 14:54:00,
2013-07-07 10:55:00,77.0,77.0,30.07,SSE,163,0.0,10.4,100,0.01,,SKC,0.01,VWS V14.01,2013-07-07 14:55:00,
2013-07-07 10:56:00,77.0,77.0,30.07,SSE,163,0.0,10.4,100,0.01,,SKC,0.01,VWS V14.01,2013-07-07 14:56:00,
2013-07-07 10:59:00,77.1,77.1,30.07,SSE,163,0.0,10.4,100,0.01,,SKC,0.01,VWS V14.01,2013-07-07 14:59:00,
2013-07-07 11:00:00,77.1,77.1,30.07,South,181,0.0,10.4,100,0.01,,SKC,0.01,VWS V14.01,2013-07-07 15:00:00,
2013-07-07 11:01:00,77.1,77.1,30.07,South,181,0.0,10.4,100,0.01,,SKC,0.01,VWS V14.01,2013-07-07 15:01:00,
2013-07-07 11:05:00,76.3,76.3,30.07,South,181,0.0,10.4,100,0.01,,SKC,0.01,VWS V14.01,2013-07-07 15:05:00,
2013-07-07 11:06:00,76.1,76.1,30.07,South,181,0.0,10.4,100,0.01,,SKC,0.01,VWS V14.01,2013-07-07 15:06:00,
2013-07-07 11:07:00,76.0,76.0,30.07,South,181,0.0,10.4,100,0.01,,SKC,0.01,VWS V14.01,2013-07-07 15:07:00,
2013-07-07 11:10:00,75.4,75.4,30.07,South,181,0.0,10.4,100,0.01,,SKC,0.01,VWS V14.01,2013-07-07 15:10:00,
2013-07-07 11:11:00,75.3,75.3,30.07,South,181,0.0,10.4,100,0.01,,SKC,0.01,VWS V14.01,2013-07-07 15:11:00,
2013-07-07 11:12:00,75.2,75.2,30.07,South,181,0.0,10.4,100,0.01,,SKC,0.01,VWS V14.01,2013-07-07 15:12:00,
2013-07-07 11:15:00,75.1,75.1,30.07,South,181,0.0,10.4,100,0.01,,SKC,0.01,VWS V14.01,2013-07-07 15:15:00,
2013-07-07 11:16:00,75.1,75.1,30.07,South,181,0.0,10.4,100,0.01,,SKC,0.01,VWS V14.01,2013-07-07 15:16:00,
2013-07-07 11:17:00,75.1,75.0,30.07,South,181,0.0,10.4,100,0.01,,SKC,0.01,VWS V14.01,2013-07-07 15:17:00,
2013-07-07 11:20:00,75.0,75.0,30.08,South,181,0.0,10.4,100,0.01,,SKC,0.01,VWS V14.01,2013-07-07 15:20:00,
2013-07-07 11:21:00,75.0,75.0,30.08,South,181,0.0,10.4,100,0.01,,SKC,0.01,VWS V14.01,2013-07-07 15:21:00,
2013-07-07 11:22:00,75.1,75.1,30.08,South,181,0.0,10.4,100,0.01,,SKC,0.01,VWS V14.01,2013-07-07 15:22:00,
2013-07-07 11:25:00,75.3,75.3,30.08,South,181,0.0,10.4,100,0.01,,SKC,0.01,VWS V14.01,2013-07-07 15:25:00,
2013-07-07 11:26:00,75.3,75.3,30.08,South,181,0.0,10.4,100,0.01,,SKC,0.01,VWS V14.01,2013-07-07 15:26:00,
2013-07-07 11:27:00,75.3,75.3,30.08,South,181,0.0,10.4,100,0.01,,SKC,0.01,VWS V14.01,2013-07-07 15:27:00,
2013-07-07 11:28:00,75.5,75.5,30.08,South,181,0.0,10.4,100,0.01,,SKC,0.01,VWS V14.01,2013-07-07 15:28:00,
2013-07-07 11:30:00,75.5,75.5,30.08,South,181,0.0,10.4,100,0.01,,SKC,0.01,VWS V14.01,2013-07-07 15:30:00,
2013-07-07 11:31:00,75.4,75.4,30.08,South,181,0.0,10.4,100,0.01,,SKC,0.01,VWS V14.01,2013-07-07 15:31:00,
2013-07-07 11:32:00,75.5,75.5,30.08,South,181,0.0,10.4,100,0.01,,SKC,0.01,VWS V14.01,2013-07-07 15:32:00,
2013-07-07 11:33:00,75.7,75.7,30.08,South,181,0.0,10.4,100,0.01,,SKC,0.01,VWS V14.01,2013-07-07 15:33:00,
2013-07-07 11:35:00,75.8,75.8,30.08,South,181,0.0,10.4,100,0.01,,SKC,0.01,VWS V14.01,2013-07-07 15:35:00,
2013-07-07 11:36:00,75.9,75.9,30.08,South,181,0.0,10.4,100,0.01,,SKC,0.01,VWS V14.01,2013-07-07 15:36:00,
2013-07-07 11:37:00,75.9,76.0,30.08,South,181,0.0,10.4,100,0.01,,SKC,0.01,VWS V14.01,2013-07-07 15:37:00,
2013-07-07 11:38:00,76.0,76.0,30.09,South,181,0.0,10.4,100,0.01,,SKC,0.01,VWS V14.01,2013-07-07 15:38:00,
2013-07-07 11:40:00,76.1,76.1,30.09,South,181,0.0,10.4,100,0.01,,SKC,0.01,VWS V14.01,2013-07-07 15:40:00,
2013-07-07 11:42:00,76.2,76.2,30.09,South,181,0.0,10.4,100,0.01,,SKC,0.01,VWS V14.01,2013-07-07 15:42:00,
2013-07-07 11:43:00,76.1,76.1,30.09,SW,224,3.9,10.4,100,0.01,,SKC,0.01,VWS V14.01,2013-07-07 15:43:00,
2013-07-07 11:45:00,76.1,76.1,30.09,SW,224,0.0,10.4,100,0.01,,SKC,0.01,VWS V14.01,2013-07-07 15:45:00,
2013-07-07 11:47:00,76.0,76.0,30.09,SW,224,0.0,10.4,100,0.01,,SKC,0.01,VWS V14.01,2013-07-07 15:47:00,
2013-07-07 11:48:00,76.0,76.0,30.08,SW,224,0.0,10.4,100,0.01,,SKC,0.01,VWS V14.01,2013-07-07 15:48:00,
2013-07-07 11:50:00,76.1,76.1,30.09,SW,224,0.0,10.4,100,0.01,,SKC,0.01,VWS V14.01,2013-07-07 15:50:00,
2013-07-07 11:52:00,76.2,76.2,30.09,SW,224,7.2,10.4,100,0.01,,SKC,0.01,VWS V14.01,2013-07-07 15:52:00,
2013-07-07 11:53:00,76.3,76.1,30.09,SW,224,0.0,10.4,100,0.01,,SKC,0.01,VWS V14.01,2013-07-07 15:53:00,
2013-07-07 11:54:00,76.2,76.2,30.09,SW,224,0.0,10.4,100,0.01,,SKC,0.01,VWS V14.01,2013-07-07 15:54:00,
2013-07-07 11:56:00,76.3,76.3,30.09,South,169,3.7,10.4,100,0.01,,SKC,0.01,VWS V14.01,2013-07-07 15:56:00,
2013-07-07 11:57:00,76.3,76.3,30.09,South,170,1.6,10.4,100,0.01,,SKC,0.01,VWS V14.01,2013-07-07 15:57:00,
2013-07-07 11:58:00,76.3,76.3,30.09,SE,132,0.7,10.4,100,0.01,,SKC,0.01,VWS V14.01,2013-07-07 15:58:00,
2013-07-07 11:59:00,76.3,76.3,30.09,South,172,0.0,10.4,100,0.01,,SKC,0.01,VWS V14.01,2013-07-07 15:59:00,
2013-07-07 12:01:00,76.4,76.4,30.09,South,172,0.0,10.4,100,0.01,,SKC,0.01,VWS V14.01,2013-07-07 16:01:00,
2013-07-07 12:02:00,76.3,76.3,30.10,South,172,0.0,10.4,100,0.01,,SKC,0.01,VWS V14.01,2013-07-07 16:02:00,
2013-07-07 12:03:00,76.3,76.3,30.09,South,172,0.0,10.4,100,0.01,,SKC,0.01,VWS V14.01,2013-07-07 16:03:00,
2013-07-07 12:04:00,76.3,76.3,30.09,South,172,0.0,10.4,100,0.01,,SKC,0.01,VWS V14.01,2013-07-07 16:04:00,
2013-07-07 12:06:00,76.2,76.2,30.10,South,172,0.0,10.4,100,0.01,,SKC,0.01,VWS V14.01,2013-07-07 16:06:00,
2013-07-07 12:07:00,76.3,76.3,30.10,South,172,0.0,10.4,100,0.01,,SKC,0.01,VWS V14.01,2013-07-07 16:07:00,
2013-07-07 12:08:00,76.3,76.3,30.10,South,172,0.0,10.4,100,0.01,,SKC,0.01,VWS V14.01,2013-07-07 16:08:00,
2013-07-07 12:09:00,76.3,76.3,30.10,South,172,0.0,10.4,100,0.01,,SKC,0.01,VWS V14.01,2013-07-07 16:09:00,
2013-07-07 12:12:00,76.4,76.4,30.10,South,172,0.0,10.4,100,0.01,,SKC,0.01,VWS V14.01,2013-07-07 16:12:00,
2013-07-07 12:13:00,76.6,76.6,30.10,South,172,0.0,10.4,100,0.01,,SKC,0.01,VWS V14.01,2013-07-07 16:13:00,
2013-07-07 12:14:00,76.6,76.6,30.10,South,172,0.0,10.4,100,0.01,,SKC,0.01,VWS V14.01,2013-07-07 16:14:00,
2013-07-07 12:17:00,76.7,76.7,30.10,SSW,193,0.0,10.4,100,0.01,,SKC,0.01,VWS V14.01,2013-07-07 16:17:00,
2013-07-07 12:18:00,76.7,76.7,30.10,SSW,193,0.5,10.4,100,0.01,,SKC,0.01,VWS V14.01,2013-07-07 16:18:00,
2013-07-07 12:19:00,76.8,76.8,30.10,SW,215,2.2,10.4,100,0.01,,SKC,0.01,VWS V14.01,2013-07-07 16:19:00,
2013-07-07 12:20:00,76.8,76.8,30.10,SW,215,0.0,10.4,100,0.01,,SKC,0.01,VWS V14.01,2013-07-07 16:20:00,
2013-07-07 12:22:00,76.9,76.9,30.10,SW,221,0.0,10.4,100,0.01,,SKC,0.01,VWS V14.01,2013-07-07 16:22:00,
2013-07-07 12:23:00,76.9,76.9,30.10,SW,221,4.7,10.4,100,0.01,,SKC,0.01,VWS V14.01,2013-07-07 16:23:00,
2013-07-07 12:25:00,77.0,77.0,30.10,SW,236,0.0,10.4,100,0.01,,SKC,0.01,VWS V14.01,2013-07-07 16:25:00,
2013-07-07 12:27:00,77.1,77.1,30.10,South,191,5.8,10.4,100,0.01,,SKC,0.01,VWS V14.01,2013-07-07 16:27:00,
2013-07-07 12:28:00,77.2,77.2,30.10,SSW,202,4.5,10.4,100,0.01,,SKC,0.01,VWS V14.01,2013-07-07 16:28:00,
2013-07-07 12:30:00,77.3,77.3,30.10,SW,235,0.0,10.4,100,0.01,,SKC,0.01,VWS V14.01,2013-07-07 16:30:00,
2013-07-07 12:32:00,77.4,77.4,30.10,SW,235,0.0,10.4,100,0.01,,SKC,0.01,VWS V14.01,2013-07-07 16:32:00,
2013-07-07 12:33:00,77.5,77.5,30.10,SW,219,0.0,10.4,100,0.01,,SKC,0.01,VWS V14.01,2013-07-07 16:33:00,
2013-07-07 12:34:00,77.5,77.5,30.10,SW,219,0.0,10.4,100,0.01,,SKC,0.01,VWS V14.01,2013-07-07 16:34:00,
2013-07-07 12:35:00,77.5,77.5,30.10,SW,219,0.0,10.4,100,0.01,,SKC,0.01,VWS V14.01,2013-07-07 16:35:00,
2013-07-07 12:37:00,77.7,77.7,30.10,WSW,240,0.0,10.4,100,0.01,,SKC,0.01,VWS V14.01,2013-07-07 16:37:00,
2013-07-07 12:38:00,77.7,77.7,30.10,SSW,198,5.0,10.4,100,0.01,,SKC,0.01,VWS V14.01,2013-07-07 16:38:00,
2013-07-07 12:39:00,77.8,77.8,30.10,SSW,195,3.7,10.4,100,0.01,,SKC,0.01,VWS V14.01,2013-07-07 16:39:00,
2013-07-07 12:40:00,77.9,77.9,30.10,South,190,3.5,10.4,100,0.01,,SKC,0.01,VWS V14.01,2013-07-07 16:40:00,
2013-07-07 12:41:00,78.0,77.9,30.10,South,190,5.2,10.4,100,0.01,,SKC,0.01,VWS V14.01,2013-07-07 16:41:00,
2013-07-07 12:42:00,78.0,78.0,30.10,South,183,4.1,10.4,100,0.01,,SKC,0.01,VWS V14.01,2013-07-07 16:42:00,
2013-07-07 12:43:00,78.1,78.1,30.10,SW,222,6.2,10.4,100,0.01,,SKC,0.01,VWS V14.01,2013-07-07 16:43:00,
2013-07-07 12:44:00,78.1,78.1,30.10,SW,214,6.8,10.4,100,0.01,,SKC,0.01,VWS V14.01,2013-07-07 16:44:00,
2013-07-07 12:45:00,78.1,78.1,30.10,SW,214,0.0,10.4,100,0.01,,SKC,0.01,VWS V14.01,2013-07-07 16:45:00,
2013-07-07 12:46:00,78.2,78.2,30.10,North,359,0.0,10.4,100,0.01,,SKC,0.01,VWS V14.01,2013-07-07 16:46:00,
2013-07-07 12:47:00,78.2,78.2,30.10,South,170,7.4,10.4,100,0.01,,SKC,0.01,VWS V14.01,2013-07-07 16:47:00,
2013-07-07 12:48:00,78.3,78.3,30.10,SSW,202,2.4,10.4,100,0.01,,SKC,0.01,VWS V14.01,2013-07-07 16:48:00,
2013-07-07 12:50:00,78.2,78.2,30.10,SW,218,0.0,10.4,100,0.01,,SKC,0.01,VWS V14.01,2013-07-07 16:50:00,
2013-07-07 12:51:00,78.3,78.3,30.10,SW,214,3.5,10.4,100,0.01,,SKC,0.01,VWS V14.01,2013-07-07 16:51:00,
2013-07-07 12:52:00,78.3,78.3,30.10,South,188,4.0,10.4,100,0.01,,SKC,0.01,VWS V14.01,2013-07-07 16:52:00,
2013-07-07 12:53:00,78.4,78.4,30.10,South,177,3.7,10.4,100,0.01,,SKC,0.01,VWS V14.01,2013-07-07 16:53:00,
2013-07-07 12:55:00,78.5,78.5,30.10,South,191,8.1,10.4,100,0.01,,SKC,0.01,VWS V14.01,2013-07-07 16:55:00,
2013-07-07 12:56:00,78.5,78.5,30.10,South,184,6.0,10.4,100,0.01,,SKC,0.01,VWS V14.01,2013-07-07 16:56:00,
2013-07-07 12:57:00,78.5,78.5,30.10,South,187,4.1,10.4,100,0.01,,SKC,0.01,VWS V14.01,2013-07-07 16:57:00,
2013-07-07 12:59:00,78.5,78.5,30.09,South,179,0.0,10.4,100,0.01,,SKC,0.01,VWS V14.01,2013-07-07 16:59:00,
2013-07-07 13:00:00,78.5,78.5,30.10,South,179,0.0,10.4,100,0.01,,SKC,0.01,VWS V14.01,2013-07-07 17:00:00,
2013-07-07 13:01:00,78.7,78.7,30.10,South,179,0.0,10.4,100,0.01,,SKC,0.01,VWS V14.01,2013-07-07 17:01:00,
2013-07-07 13:02:00,78.5,78.5,30.10,South,186,6.2,10.4,100,0.01,,SKC,0.01,VWS V14.01,2013-07-07 17:02:00,
2013-07-07 13:04:00,78.5,78.5,30.10,SSW,200,6.6,10.4,100,0.01,,SKC,0.01,VWS V14.01,2013-07-07 17:04:00,
2013-07-07 13:05:00,78.7,78.7,30.10,South,187,3.9,10.4,100,0.01,,SKC,0.01,VWS V14.01,2013-07-07 17:05:00,
2013-07-07 13:06:00,78.8,78.8,30.10,SSW,200,6.4,10.4,100,0.01,,SKC,0.01,VWS V14.01,2013-07-07 17:06:00,
2013-07-07 13:07:00,78.7,78.7,30.10,SW,219,0.0,10.4,100,0.01,,SKC,0.01,VWS V14.01,2013-07-07 17:07:00,
2013-07-07 13:09:00,78.8,78.8,30.10,SW,217,8.3,10.4,100,0.01,,SKC,0.01,VWS V14.01,2013-07-07 17:09:00,
2013-07-07 13:10:00,78.8,78.8,30.10,SSE,162,0.0,10.4,100,0.01,,SKC,0.01,VWS V14.01,2013-07-07 17:10:00,
2013-07-07 13:11:00,78.8,78.8,30.10,South,177,3.2,10.4,100,0.01,,SKC,0.01,VWS V14.01,2013-07-07 17:11:00,
2013-07-07 13:12:00,78.8,78.8,30.09,SSW,208,6.0,10.4,100,0.01,,SKC,0.01,VWS V14.01,2013-07-07 17:12:00,
2013-07-07 13:14:00,78.8,78.8,30.09,SSW,202,0.9,10.4,100,0.01,,SKC,0.01,VWS V14.01,2013-07-07 17:14:00,
2013-07-07 13:15:00,78.7,78.7,30.10,SSW,198,0.0,10.4,100,0.01,,SKC,0.01,VWS V14.01,2013-07-07 17:15:00,
2013-07-07 13:16:00,78.7,78.7,30.10,SSW,193,7.0,10.4,100,0.01,,SKC,0.01,VWS V14.01,2013-07-07 17:16:00,
2013-07-07 13:17:00,78.7,78.7,30.09,SSW,211,4.8,10.4,100,0.01,,SKC,0.01,VWS V14.01,2013-07-07 17:17:00,
2013-07-07 13:19:00,78.4,78.4,30.09,South,183,0.0,10.4,100,0.01,,SKC,0.01,VWS V14.01,2013-07-07 17:19:00,
2013-07-07 13:20:00,78.4,78.4,30.09,South,183,8.2,10.4,100,0.01,,SKC,0.01,VWS V14.01,2013-07-07 17:20:00,
2013-07-07 13:21:00,78.2,78.2,30.09,South,179,0.0,10.4,100,0.01,,SKC,0.01,VWS V14.01,2013-07-07 17:21:00,
2013-07-07 13:22:00,78.2,78.2,30.09,South,179,0.0,10.4,100,0.01,,SKC,0.01,VWS V14.01,2013-07-07 17:22:00,
2013-07-07 13:25:00,78.2,78.2,30.09,South,181,0.0,10.4,100,0.01,,SKC,0.01,VWS V14.01,2013-07-07 17:25:00,
2013-07-07 13:26:00,78.2,78.2,30.09,South,188,0.0,10.4,100,0.01,,SKC,0.01,VWS V14.01,2013-07-07 17:26:00,
2013-07-07 13:27:00,78.2,78.2,30.09,South,191,5.3,10.4,100,0.01,,SKC,0.01,VWS V14.01,2013-07-07 17:27:00,
2013-07-07 13:28:00,78.3,78.3,30.09,South,190,6.9,10.4,100,0.01,,SKC,0.01,VWS V14.01,2013-07-07 17:28:00,
2013-07-07 13:30:00,78.2,78.2,30.09,South,184,3.5,10.4,100,0.01,,SKC,0.01,VWS V14.01,2013-07-07 17:30:00,
2013-07-07 13:31:00,78.2,78.2,30.09,North,359,0.0,11.0,100,0.01,,SKC,0.01,VWS V14.01,2013-07-07 17:31:00,
2013-07-07 13:32:00,78.3,78.3,30.09,SSW,207,1.4,11.0,100,0.01,,SKC,0.01,VWS V14.01,2013-07-07 17:32:00,
2013-07-07 13:33:00,78.3,78.3,30.09,SSW,202,2.7,11.0,100,0.01,,SKC,0.01,VWS V14.01,2013-07-07 17:33:00,
2013-07-07 13:35:00,78.5,78.5,30.09,SW,231,2.4,11.0,100,0.01,,SKC,0.01,VWS V14.01,2013-07-07 17:35:00,
2013-07-07 13:37:00,78.8,78.8,30.09,SSW,194,5.1,11.0,100,0.01,,SKC,0.01,VWS V14.01,2013-07-07 17:37:00,
2013-07-07 13:38:00,78.8,78.8,30.09,South,169,5.3,11.0,100,0.01,,SKC,0.01,VWS V14.01,2013-07-07 17:38:00,
2013-07-07 13:40:00,78.9,78.9,30.09,SSW,210,4.2,11.0,100,0.01,,SKC,0.01,VWS V14.01,2013-07-07 17:40:00,
2013-07-07 13:41:00,79.0,79.0,30.09,South,179,0.0,11.0,100,0.01,,SKC,0.01,VWS V14.01,2013-07-07 17:41:00,
2013-07-07 13:42:00,79.0,79.0,30.09,South,180,5.2,11.4,100,0.01,,SKC,0.01,VWS V14.01,2013-07-07 17:42:00,
2013-07-07 13:43:00,79.2,79.2,30.09,South,186,1.2,11.4,100,0.01,,SKC,0.01,VWS V14.01,2013-07-07 17:43:00,
2013-07-07 13:45:00,79.8,79.8,30.09,South,183,5.5,11.4,100,0.01,,SKC,0.01,VWS V14.01,2013-07-07 17:45:00,
2013-07-07 13:46:00,79.8,79.8,30.09,SSW,212,6.5,11.4,100,0.01,,SKC,0.01,VWS V14.01,2013-07-07 17:46:00,
2013-07-07 13:47:00,80.0,80.0,30.09,South,183,3.9,11.4,100,0.01,,SKC,0.01,VWS V14.01,2013-07-07 17:47:00,
2013-07-07 13:48:00,80.2,80.2,30.09,SSW,198,0.0,11.4,100,0.01,,SKC,0.01,VWS V14.01,2013-07-07 17:48:00,
2013-07-07 13:51:00,80.3,80.3,30.09,South,176,9.0,11.4,100,0.01,,SKC,0.01,VWS V14.01,2013-07-07 17:51:00,
2013-07-07 13:52:00,80.2,80.2,30.09,South,184,0.0,11.4,100,0.01,,SKC,0.01,VWS V14.01,2013-07-07 17:52:00,
2013-07-07 13:53:00,80.0,80.0,30.09,North,359,0.4,11.4,100,0.01,,SKC,0.01,VWS V14.01,2013-07-07 17:53:00,
2013-07-07 13:56:00,79.9,79.9,30.09,South,180,0.0,11.4,100,0.01,,SKC,0.01,VWS V14.01,2013-07-07 17:56:00,
2013-07-07 13:57:00,79.8,79.8,30.09,South,170,6.4,11.4,100,0.01,,SKC,0.01,VWS V14.01,2013-07-07 17:57:00,
2013-07-07 13:58:00,79.8,79.8,30.10,North,359,0.8,11.4,100,0.01,,SKC,0.01,VWS V14.01,2013-07-07 17:58:00,
2013-07-07 14:01:00,79.7,79.7,30.10,SSW,205,3.0,11.4,100,0.01,,SKC,0.01,VWS V14.01,2013-07-07 18:01:00,
2013-07-07 14:02:00,79.8,79.8,30.10,North,359,6.5,11.4,100,0.01,,SKC,0.01,VWS V14.01,2013-07-07 18:02:00,
2013-07-07 14:03:00,79.8,79.8,30.10,SSE,156,6.8,11.4,100,0.01,,SKC,0.01,VWS V14.01,2013-07-07 18:03:00,
2013-07-07 14:06:00,79.4,79.4,30.09,SSW,198,6.5,11.6,100,0.01,,SKC,0.01,VWS V14.01,2013-07-07 18:06:00,
2013-07-07 14:07:00,79.3,79.3,30.09,South,186,6.0,11.6,100,0.01,,SKC,0.01,VWS V14.01,2013-07-07 18:07:00,
2013-07-07 14:08:00,79.3,79.3,30.09,SSE,158,4.7,11.6,100,0.01,,SKC,0.01,VWS V14.01,2013-07-07 18:08:00,
2013-07-07 14:11:00,79.4,79.4,30.09,North,359,7.6,11.6,100,0.01,,SKC,0.01,VWS V14.01,2013-07-07 18:11:00,
2013-07-07 14:12:00,79.3,79.3,30.09,SSW,194,10.3,11.6,100,0.01,,SKC,0.01,VWS V14.01,2013-07-07 18:12:00,
2013-07-07 14:13:00,79.2,79.2,30.09,North,359,3.9,11.7,100,0.01,,SKC,0.01,VWS V14.01,2013-07-07 18:13:00,
2013-07-07 14:14:00,79.1,79.1,30.09,North,359,0.0,11.7,100,0.01,,SKC,0.01,VWS V14.01,2013-07-07 18:14:00,
2013-07-07 14:16:00,78.9,78.9,30.09,South,186,3.7,11.7,100,0.01,,SKC,0.01,VWS V14.01,2013-07-07 18:16:00,
2013-07-07 14:17:00,78.9,78.9,30.09,SSW,197,4.3,11.7,100,0.01,,SKC,0.01,VWS V14.01,2013-07-07 18:17:00,
2013-07-07 14:18:00,78.9,78.9,30.09,South,181,6.7,11.7,100,0.01,,SKC,0.01,VWS V14.01,2013-07-07 18:18:00,
2013-07-07 14:19:00,78.8,78.8,30.09,SSE,166,5.4,11.7,100,0.01,,SKC,0.01,VWS V14.01,2013-07-07 18:19:00,
2013-07-07 14:21:00,78.9,78.9,30.09,SSW,204,0.7,11.7,100,0.01,,SKC,0.01,VWS V14.01,2013-07-07 18:21:00,
2013-07-07 14:22:00,78.9,78.9,30.09,SSW,204,0.0,11.7,100,0.01,,SKC,0.01,VWS V14.01,2013-07-07 18:22:00,
2013-07-07 14:23:00,78.8,78.8,30.09,SSW,194,0.0,11.7,100,0.01,,SKC,0.01,VWS V14.01,2013-07-07 18:23:00,
2013-07-07 14:24:00,78.8,78.8,30.09,North,359,0.0,11.7,100,0.01,,SKC,0.01,VWS V14.01,2013-07-07 18:24:00,
2013-07-07 14:27:00,78.8,78.8,30.09,South,184,4.4,11.7,100,0.01,,SKC,0.01,VWS V14.01,2013-07-07 18:27:00,
2013-07-07 14:28:00,78.9,78.9,30.09,South,174,5.6,11.7,100,0.01,,SKC,0.01,VWS V14.01,2013-07-07 18:28:00,
2013-07-07 14:29:00,78.8,78.8,30.09,South,190,7.6,11.7,100,0.01,,SKC,0.01,VWS V14.01,2013-07-07 18:29:00,
2013-07-07 14:32:00,78.9,78.9,30.09,SW,214,0.0,11.7,100,0.01,,SKC,0.01,VWS V14.01,2013-07-07 18:32:00,
2013-07-07 14:33:00,78.9,78.9,30.09,SW,214,0.0,11.7,100,0.01,,SKC,0.01,VWS V14.01,2013-07-07 18:33:00,
2013-07-07 14:35:00,79.0,79.0,30.09,North,359,0.2,11.7,100,0.01,,SKC,0.01,VWS V14.01,2013-07-07 18:35:00,
2013-07-07 14:38:00,79.1,79.1,30.09,SSW,211,5.3,11.7,100,0.01,,SKC,0.01,VWS V14.01,2013-07-07 18:38:00,
2013-07-07 14:39:00,79.1,79.1,30.09,SW,217,3.5,11.7,100,0.01,,SKC,0.01,VWS V14.01,2013-07-07 18:39:00,
2013-07-07 14:40:00,79.1,79.1,30.09,SSW,208,3.7,11.7,100,0.01,,SKC,0.01,VWS V14.01,2013-07-07 18:40:00,
2013-07-07 14:43:00,79.2,79.2,30.09,SSW,193,0.0,11.7,100,0.01,,SKC,0.01,VWS V14.01,2013-07-07 18:43:00,
2013-07-07 14:44:00,79.2,79.2,30.09,SSW,204,8.3,11.7,100,0.01,,SKC,0.01,VWS V14.01,2013-07-07 18:44:00,
2013-07-07 14:45:00,79.3,79.3,30.09,South,187,0.4,11.7,100,0.01,,SKC,0.01,VWS V14.01,2013-07-07 18:45:00,
2013-07-07 14:48:00,79.4,79.4,30.09,South,179,1.1,11.7,100,0.01,,SKC,0.01,VWS V14.01,2013-07-07 18:48:00,
2013-07-07 14:49:00,79.4,79.4,30.09,South,183,8.3,11.7,100,0.01,,SKC,0.01,VWS V14.01,2013-07-07 18:49:00,
2013-07-07 14:50:00,79.4,79.4,30.09,South,190,5.3,11.7,100,0.01,,SKC,0.01,VWS V14.01,2013-07-07 18:50:00,
2013-07-07 14:53:00,79.5,79.5,30.09,SSW,193,5.6,11.7,100,0.01,,SKC,0.01,VWS V14.01,2013-07-07 18:53:00,
2013-07-07 14:54:00,79.7,79.7,30.09,SSW,212,1.4,11.7,100,0.01,,SKC,0.01,VWS V14.01,2013-07-07 18:54:00,
2013-07-07 14:55:00,79.7,79.7,30.09,SW,222,3.4,11.7,100,0.01,,SKC,0.01,VWS V14.01,2013-07-07 18:55:00,
2013-07-07 14:58:00,79.9,79.9,30.09,North,359,0.0,11.7,100,0.01,,SKC,0.01,VWS V14.01,2013-07-07 18:58:00,
2013-07-07 14:59:00,80.0,80.0,30.09,North,359,0.0,11.7,100,0.01,,SKC,0.01,VWS V14.01,2013-07-07 18:59:00,
2013-07-07 15:00:00,80.1,80.1,30.09,North,359,0.0,11.7,100,0.01,,SKC,0.01,VWS V14.01,2013-07-07 19:00:00,
2013-07-07 15:03:00,80.1,80.1,30.09,North,359,0.0,11.7,100,0.01,,SKC,0.01,VWS V14.01,2013-07-07 19:03:00,
2013-07-07 15:04:00,80.0,80.0,30.09,SSW,204,4.2,11.7,100,0.01,,SKC,0.01,VWS V14.01,2013-07-07 19:04:00,
2013-07-07 15:05:00,80.0,80.0,30.09,SSW,205,5.0,11.7,100,0.01,,SKC,0.01,VWS V14.01,2013-07-07 19:05:00,
2013-07-07 15:08:00,80.0,80.0,30.09,North,359,2.0,11.7,100,0.01,,SKC,0.01,VWS V14.01,2013-07-07 19:08:00,
2013-07-07 15:09:00,79.9,79.9,30.08,WSW,239,5.2,11.7,100,0.01,,SKC,0.01,VWS V14.01,2013-07-07 19:09:00,
2013-07-07 15:10:00,79.9,79.9,30.09,SW,229,0.0,11.7,100,0.01,,SKC,0.01,VWS V14.01,2013-07-07 19:10:00,
2013-07-07 15:13:00,79.9,79.9,30.08,SSW,205,0.0,11.7,100,0.01,,SKC,0.01,VWS V14.01,2013-07-07 19:13:00,
2013-07-07 15:14:00,79.9,79.9,30.08,SSW,205,0.0,11.7,100,0.01,,SKC,0.01,VWS V14.01,2013-07-07 19:14:00,
2013-07-07 15:15:00,79.9,79.9,30.08,SW,231,4.7,11.7,100,0.01,,SKC,0.01,VWS V14.01,2013-07-07 19:15:00,
2013-07-07 15:18:00,79.8,79.8,30.08,SW,215,4.6,11.7,100,0.01,,SKC,0.01,VWS V14.01,2013-07-07 19:18:00,
2013-07-07 15:19:00,79.8,79.8,30.08,SW,215,0.0,11.7,100,0.01,,SKC,0.01,VWS V14.01,2013-07-07 19:19:00,
2013-07-07 15:20:00,79.8,79.8,30.08,SW,215,0.0,11.7,100,0.01,,SKC,0.01,VWS V14.01,2013-07-07 19:20:00,
2013-07-07 15:21:00,79.7,79.7,30.08,SW,225,4.5,11.7,100,0.01,,SKC,0.01,VWS V14.01,2013-07-07 19:21:00,
2013-07-07 15:23:00,79.8,79.8,30.08,SW,224,5.6,11.7,100,0.01,,SKC,0.01,VWS V14.01,2013-07-07 19:23:00,
2013-07-07 15:24:00,79.8,79.8,30.08,WSW,238,9.6,11.7,100,0.01,,SKC,0.01,VWS V14.01,2013-07-07 19:24:00,
2013-07-07 15:25:00,79.8,79.8,30.08,SW,231,5.3,11.7,100,0.01,,SKC,0.01,VWS V14.01,2013-07-07 19:25:00,
2013-07-07 15:26:00,79.9,79.8,30.08,SW,222,1.7,11.7,100,0.01,,SKC,0.01,VWS V14.01,2013-07-07 19:26:00,
2013-07-07 15:28:00,79.9,79.9,30.08,SSW,211,2.9,11.7,100,0.01,,SKC,0.01,VWS V14.01,2013-07-07 19:28:00,
2013-07-07 15:29:00,79.9,79.9,30.08,North,359,0.0,11.7,100,0.01,,SKC,0.01,VWS V14.01,2013-07-07 19:29:00,
2013-07-07 15:30:00,79.9,79.9,30.08,North,359,5.1,11.7,100,0.01,,SKC,0.01,VWS V14.01,2013-07-07 19:30:00,
2013-07-07 15:31:00,79.9,79.9,30.08,SSW,202,5.4,11.7,100,0.01,,SKC,0.01,VWS V14.01,2013-07-07 19:31:00,
2013-07-07 15:34:00,79.9,79.9,30.08,SW,232,0.0,11.7,100,0.01,,SKC,0.01,VWS V14.01,2013-07-07 19:34:00,
2013-07-07 15:35:00,79.8,79.8,30.08,SW,232,0.0,11.7,100,0.01,,SKC,0.01,VWS V14.01,2013-07-07 19:35:00,
2013-07-07 15:36:00,79.8,79.8,30.08,SW,232,0.0,11.7,100,0.01,,SKC,0.01,VWS V14.01,2013-07-07 19:36:00,
2013-07-07 15:39:00,79.5,79.7,30.08,SW,232,0.0,11.7,100,0.01,,SKC,0.01,VWS V14.01,2013-07-07 19:39:00,
2013-07-07 15:40:00,79.7,79.5,30.08,SW,232,0.0,11.7,100,0.01,,SKC,0.01,VWS V14.01,2013-07-07 19:40:00,
2013-07-07 15:41:00,79.5,79.5,30.08,SW,232,0.0,11.7,100,0.01,,SKC,0.01,VWS V14.01,2013-07-07 19:41:00,
2013-07-07 15:44:00,79.3,79.3,30.08,SW,232,0.0,11.7,100,0.01,,SKC,0.01,VWS V14.01,2013-07-07 19:44:00,
2013-07-07 15:46:00,79.2,79.1,30.08,SW,232,0.0,11.7,100,0.01,,SKC,0.01,VWS V14.01,2013-07-07 19:46:00,
2013-07-07 15:49:00,79.1,79.1,30.08,SW,232,0.0,11.7,100,0.01,,SKC,0.01,VWS V14.01,2013-07-07 19:49:00,
2013-07-07 15:51:00,79.1,79.1,30.08,SSW,202,2.8,11.7,100,0.01,,SKC,0.01,VWS V14.01,2013-07-07 19:51:00,
2013-07-07 15:52:00,79.1,79.1,30.08,SW,231,8.0,11.7,100,0.01,,SKC,0.01,VWS V14.01,2013-07-07 19:52:00,
2013-07-07 15:54:00,79.1,79.1,30.08,SW,231,0.0,11.7,100,0.01,,SKC,0.01,VWS V14.01,2013-07-07 19:54:00,
2013-07-07 15:55:00,79.1,79.1,30.08,SW,231,0.0,11.7,100,0.01,,SKC,0.01,VWS V14.01,2013-07-07 19:55:00,
2013-07-07 15:56:00,79.1,79.1,30.08,SSW,201,2.7,11.7,100,0.01,,SKC,0.01,VWS V14.01,2013-07-07 19:56:00,
2013-07-07 15:57:00,79.1,79.1,30.08,SSW,198,1.8,11.7,100,0.01,,SKC,0.01,VWS V14.01,2013-07-07 19:57:00,
2013-07-07 15:59:00,79.1,79.1,30.08,SW,231,0.0,11.7,100,0.01,,SKC,0.01,VWS V14.01,2013-07-07 19:59:00,
2013-07-07 16:01:00,79.0,79.0,30.08,SW,231,0.0,11.7,100,0.01,,SKC,0.01,VWS V14.01,2013-07-07 20:01:00,
2013-07-07 16:02:00,78.9,78.9,30.08,SW,231,0.0,11.7,100,0.01,,SKC,0.01,VWS V14.01,2013-07-07 20:02:00,
2013-07-07 16:04:00,78.9,78.9,30.08,SW,231,0.0,11.7,100,0.01,,SKC,0.01,VWS V14.01,2013-07-07 20:04:00,
2013-07-07 16:06:00,78.9,78.9,30.08,SW,231,0.0,11.7,100,0.01,,SKC,0.01,VWS V14.01,2013-07-07 20:06:00,
2013-07-07 16:07:00,78.8,78.8,30.08,SW,231,0.0,11.7,100,0.01,,SKC,0.01,VWS V14.01,2013-07-07 20:07:00,
2013-07-07 16:09:00,78.8,78.8,30.08,SW,231,0.0,11.7,100,0.01,,SKC,0.01,VWS V14.01,2013-07-07 20:09:00,
2013-07-07 16:11:00,78.8,78.9,30.08,SW,231,0.0,11.7,100,0.01,,SKC,0.01,VWS V14.01,2013-07-07 20:11:00,
2013-07-07 16:12:00,78.8,78.8,30.08,SW,231,0.0,11.7,100,0.01,,SKC,0.01,VWS V14.01,2013-07-07 20:12:00,
2013-07-07 16:15:00,78.7,78.7,30.07,SW,231,0.0,11.7,100,0.01,,SKC,0.01,VWS V14.01,2013-07-07 20:15:00,
2013-07-07 16:16:00,78.7,78.7,30.07,SW,231,0.0,11.7,100,0.01,,SKC,0.01,VWS V14.01,2013-07-07 20:16:00,
2013-07-07 16:17:00,78.7,78.7,30.08,SW,231,0.0,11.7,100,0.01,,SKC,0.01,VWS V14.01,2013-07-07 20:17:00,
2013-07-07 16:20:00,78.8,78.8,30.08,SW,231,0.0,11.7,100,0.01,,SKC,0.01,VWS V14.01,2013-07-07 20:20:00,
2013-07-07 16:22:00,78.7,78.7,30.08,SW,231,0.0,11.7,100,0.01,,SKC,0.01,VWS V14.01,2013-07-07 20:22:00,
2013-07-07 16:25:00,78.7,78.7,30.08,SW,231,0.0,11.7,100,0.01,,SKC,0.01,VWS V14.01,2013-07-07 20:25:00,
2013-07-07 16:27:00,78.7,78.7,30.07,SW,231,0.0,11.7,100,0.01,,SKC,0.01,VWS V14.01,2013-07-07 20:27:00,
2013-07-07 16:30:00,78.5,78.5,30.08,North,359,0.0,11.7,100,0.01,,SKC,0.01,VWS V14.01,2013-07-07 20:30:00,
2013-07-07 16:32:00,78.7,78.7,30.08,North,359,0.0,11.7,100,0.01,,SKC,0.01,VWS V14.01,2013-07-07 20:32:00,
2013-07-07 16:33:00,78.7,78.7,30.08,North,359,0.0,11.7,100,0.01,,SKC,0.01,VWS V14.01,2013-07-07 20:33:00,
2013-07-07 16:35:00,78.7,78.7,30.08,North,359,0.2,11.7,100,0.01,,SKC,0.01,VWS V14.01,2013-07-07 20:35:00,
2013-07-07 16:37:00,78.7,78.7,30.08,North,359,0.0,11.7,100,0.01,,SKC,0.01,VWS V14.01,2013-07-07 20:37:00,
2013-07-07 16:38:00,78.7,78.7,30.08,North,359,0.0,11.7,100,0.01,,SKC,0.01,VWS V14.01,2013-07-07 20:38:00,
2013-07-07 16:40:00,78.7,78.7,30.08,SSW,207,0.0,11.7,100,0.01,,SKC,0.01,VWS V14.01,2013-07-07 20:40:00,
2013-07-07 16:42:00,78.7,78.7,30.08,SW,231,5.4,11.7,100,0.01,,SKC,0.01,VWS V14.01,2013-07-07 20:42:00,
2013-07-07 16:43:00,78.7,78.7,30.08,SW,231,1.0,11.7,100,0.01,,SKC,0.01,VWS V14.01,2013-07-07 20:43:00,
2013-07-07 16:45:00,78.7,78.7,30.08,SW,231,0.0,11.7,100,0.01,,SKC,0.01,VWS V14.01,2013-07-07 20:45:00,
2013-07-07 16:47:00,78.4,78.4,30.07,WSW,252,3.2,11.7,100,0.01,,SKC,0.01,VWS V14.01,2013-07-07 20:47:00,
2013-07-07 16:48:00,78.5,78.4,30.07,WSW,252,0.0,11.7,100,0.01,,SKC,0.01,VWS V14.01,2013-07-07 20:48:00,
2013-07-07 16:50:00,78.4,78.4,30.08,SW,226,5.8,11.7,100,0.01,,SKC,0.01,VWS V14.01,2013-07-07 20:50:00,
2013-07-07 16:52:00,78.4,78.4,30.07,SSW,197,0.0,11.7,100,0.01,,SKC,0.01,VWS V14.01,2013-07-07 20:52:00,
2013-07-07 16:53:00,78.4,78.4,30.08,SSW,197,0.0,11.7,100,0.01,,SKC,0.01,VWS V14.01,2013-07-07 20:53:00,
2013-07-07 16:54:00,78.4,78.4,30.08,North,359,0.2,11.7,100,0.01,,SKC,0.01,VWS V14.01,2013-07-07 20:54:00,
2013-07-07 16:55:00,78.4,78.4,30.08,SSW,193,4.1,11.7,100,0.01,,SKC,0.01,VWS V14.01,2013-07-07 20:55:00,
2013-07-07 16:58:00,78.4,78.4,30.08,SW,214,3.8,11.7,100,0.01,,SKC,0.01,VWS V14.01,2013-07-07 20:58:00,
2013-07-07 16:59:00,78.3,78.3,30.08,SSW,194,3.5,11.7,100,0.01,,SKC,0.01,VWS V14.01,2013-07-07 20:59:00,
2013-07-07 17:00:00,78.3,78.3,30.07,SSW,200,4.2,11.7,100,0.01,,SKC,0.01,VWS V14.01,2013-07-07 21:00:00,
2013-07-07 17:03:00,78.3,78.3,30.07,SSW,202,0.4,11.7,100,0.01,,SKC,0.01,VWS V14.01,2013-07-07 21:03:00,
2013-07-07 17:04:00,78.3,78.3,30.07,SSW,198,0.0,11.7,100,0.01,,SKC,0.01,VWS V14.01,2013-07-07 21:04:00,
2013-07-07 17:05:00,78.2,78.2,30.07,SSW,204,0.0,11.7,100,0.01,,SKC,0.01,VWS V14.01,2013-07-07 21:05:00,
2013-07-07 17:08:00,78.2,78.2,30.07,SSW,204,0.0,11.7,100,0.01,,SKC,0.01,VWS V14.01,2013-07-07 21:08:00,
2013-07-07 17:09:00,78.2,78.2,30.07,SSW,204,0.0,11.7,100,0.01,,SKC,0.01,VWS V14.01,2013-07-07 21:09:00,
2013-07-07 17:10:00,78.2,78.2,30.07,SW,229,0.0,11.7,100,0.01,,SKC,0.01,VWS V14.01,2013-07-07 21:10:00,
2013-07-07 17:13:00,78.2,78.2,30.07,SW,232,3.7,11.7,100,0.01,,SKC,0.01,VWS V14.01,2013-07-07 21:13:00,
2013-07-07 17:14:00,78.2,78.2,30.07,SW,231,0.0,11.7,100,0.01,,SKC,0.01,VWS V14.01,2013-07-07 21:14:00,
2013-07-07 17:15:00,78.2,78.2,30.07,SW,231,0.0,11.7,100,0.01,,SKC,0.01,VWS V14.01,2013-07-07 21:15:00,
2013-07-07 17:18:00,78.2,78.2,30.07,North,359,0.0,11.7,100,0.01,,SKC,0.01,VWS V14.01,2013-07-07 21:18:00,
2013-07-07 17:19:00,78.1,78.1,30.07,North,359,0.0,11.7,100,0.01,,SKC,0.01,VWS V14.01,2013-07-07 21:19:00,
2013-07-07 17:21:00,78.1,78.1,30.07,North,359,0.0,11.7,100,0.01,,SKC,0.01,VWS V14.01,2013-07-07 21:21:00,
2013-07-07 17:23:00,78.1,78.1,30.07,North,359,0.0,11.7,100,0.01,,SKC,0.01,VWS V14.01,2013-07-07 21:23:00,
2013-07-07 17:24:00,78.1,78.1,30.07,North,359,0.0,11.7,100,0.01,,SKC,0.01,VWS V14.01,2013-07-07 21:24:00,
2013-07-07 17:26:00,78.1,78.1,30.07,South,179,0.0,11.7,100,0.01,,SKC,0.01,VWS V14.01,2013-07-07 21:26:00,
2013-07-07 17:28:00,78.1,78.1,30.07,SW,232,6.0,11.7,100,0.01,,SKC,0.01,VWS V14.01,2013-07-07 21:28:00,
2013-07-07 17:29:00,78.1,78.1,30.07,SW,232,0.0,11.7,100,0.01,,SKC,0.01,VWS V14.01,2013-07-07 21:29:00,
2013-07-07 17:30:00,78.1,78.1,30.07,SW,224,0.0,11.7,100,0.01,,SKC,0.01,VWS V14.01,2013-07-07 21:30:00,
2013-07-07 17:31:00,78.1,78.1,30.07,SW,224,0.0,11.7,100,0.01,,SKC,0.01,VWS V14.01,2013-07-07 21:31:00,
2013-07-07 17:33:00,78.1,78.1,30.07,SSW,193,0.0,11.7,100,0.01,,SKC,0.01,VWS V14.01,2013-07-07 21:33:00,
2013-07-07 17:34:00,78.1,78.1,30.07,SSW,193,0.0,11.7,100,0.01,,SKC,0.01,VWS V14.01,2013-07-07 21:34:00,
2013-07-07 17:35:00,78.1,78.1,30.07,SSW,193,0.0,11.7,100,0.01,,SKC,0.01,VWS V14.01,2013-07-07 21:35:00,
2013-07-07 17:36:00,78.1,78.1,30.07,SSW,193,0.0,11.7,100,0.01,,SKC,0.01,VWS V14.01,2013-07-07 21:36:00,
2013-07-07 17:39:00,78.1,78.1,30.07,SSW,193,0.0,11.7,100,0.01,,SKC,0.01,VWS V14.01,2013-07-07 21:39:00,
2013-07-07 17:40:00,78.1,78.1,30.07,SSW,193,0.0,11.7,100,0.01,,SKC,0.01,VWS V14.01,2013-07-07 21:40:00,
2013-07-07 17:41:00,78.0,78.0,30.07,SSW,193,0.0,11.7,100,0.01,,SKC,0.01,VWS V14.01,2013-07-07 21:41:00,
2013-07-07 17:44:00,78.0,78.0,30.07,SSW,193,0.0,11.7,100,0.01,,SKC,0.01,VWS V14.01,2013-07-07 21:44:00,
2013-07-07 17:45:00,78.0,78.0,30.07,SSW,193,0.0,11.7,100,0.01,,SKC,0.01,VWS V14.01,2013-07-07 21:45:00,
2013-07-07 17:47:00,78.1,78.1,30.07,SSW,193,0.0,11.7,100,0.01,,SKC,0.01,VWS V14.01,2013-07-07 21:47:00,
2013-07-07 17:49:00,78.0,78.1,30.07,SSW,193,0.0,11.7,100,0.01,,SKC,0.01,VWS V14.01,2013-07-07 21:49:00,
2013-07-07 17:50:00,78.0,78.0,30.07,SSW,193,0.0,11.7,100,0.01,,SKC,0.01,VWS V14.01,2013-07-07 21:50:00,
2013-07-07 17:51:00,78.0,78.0,30.07,SSW,193,0.0,11.7,100,0.01,,SKC,0.01,VWS V14.01,2013-07-07 21:51:00,
2013-07-07 17:52:00,78.0,78.1,30.07,SSW,193,0.0,11.7,100,0.01,,SKC,0.01,VWS V14.01,2013-07-07 21:52:00,
2013-07-07 17:54:00,78.0,78.0,30.07,SSW,193,0.0,11.7,100,0.01,,SKC,0.01,VWS V14.01,2013-07-07 21:54:00,
2013-07-07 17:55:00,78.0,78.0,30.06,SSW,193,0.0,11.7,100,0.01,,SKC,0.01,VWS V14.01,2013-07-07 21:55:00,
2013-07-07 17:56:00,78.0,78.0,30.07,SSW,193,0.0,11.7,100,0.01,,SKC,0.01,VWS V14.01,2013-07-07 21:56:00,
2013-07-07 17:57:00,78.0,78.0,30.07,SSW,193,0.0,11.7,100,0.01,,SKC,0.01,VWS V14.01,2013-07-07 21:57:00,
2013-07-07 17:59:00,77.9,77.9,30.07,SSW,193,0.0,11.7,100,0.01,,SKC,0.01,VWS V14.01,2013-07-07 21:59:00,
2013-07-07 18:00:00,77.9,77.9,30.07,SSW,193,0.0,11.7,100,0.01,,SKC,0.01,VWS V14.01,2013-07-07 22:00:00,
2013-07-07 18:01:00,77.9,77.9,30.07,SSW,193,0.0,11.7,100,0.01,,SKC,0.01,VWS V14.01,2013-07-07 22:01:00,
2013-07-07 18:02:00,77.9,77.9,30.07,SSW,193,0.0,11.7,100,0.01,,SKC,0.01,VWS V14.01,2013-07-07 22:02:00,
2013-07-07 18:04:00,77.9,77.9,30.07,SSW,193,0.0,11.7,100,0.01,,SKC,0.01,VWS V14.01,2013-07-07 22:04:00,
2013-07-07 18:05:00,78.0,78.0,30.07,SSW,193,0.0,11.7,100,0.01,,SKC,0.01,VWS V14.01,2013-07-07 22:05:00,
2013-07-07 18:06:00,78.0,78.0,30.07,North,359,0.0,11.7,100,0.01,,SKC,0.01,VWS V14.01,2013-07-07 22:06:00,
2013-07-07 18:07:00,77.9,77.9,30.07,SW,218,0.0,11.7,100,0.01,,SKC,0.01,VWS V14.01,2013-07-07 22:07:00,
2013-07-07 18:09:00,77.9,77.9,30.07,SSW,193,3.8,11.7,100,0.01,,SKC,0.01,VWS V14.01,2013-07-07 22:09:00,
2013-07-07 18:10:00,77.9,77.9,30.07,SSW,194,0.0,11.7,100,0.01,,SKC,0.01,VWS V14.01,2013-07-07 22:10:00,
2013-07-07 18:12:00,77.9,77.9,30.07,SSW,194,0.0,11.7,100,0.01,,SKC,0.01,VWS V14.01,2013-07-07 22:12:00,
2013-07-07 18:14:00,77.9,77.9,30.07,SSW,194,0.0,11.7,100,0.01,,SKC,0.01,VWS V14.01,2013-07-07 22:14:00,
2013-07-07 18:15:00,77.9,77.9,30.07,SSW,194,0.0,11.7,100,0.01,,SKC,0.01,VWS V14.01,2013-07-07 22:15:00,
2013-07-07 18:17:00,77.9,77.9,30.07,North,359,2.2,11.7,100,0.01,,SKC,0.01,VWS V14.01,2013-07-07 22:17:00,
2013-07-07 18:18:00,77.9,77.9,30.07,North,359,0.2,11.7,100,0.01,,SKC,0.01,VWS V14.01,2013-07-07 22:18:00,
2013-07-07 18:19:00,77.9,77.9,30.07,North,359,0.0,11.7,100,0.01,,SKC,0.01,VWS V14.01,2013-07-07 22:19:00,
2013-07-07 18:20:00,77.9,77.8,30.06,North,359,0.0,11.7,100,0.01,,SKC,0.01,VWS V14.01,2013-07-07 22:20:00,
2013-07-07 18:22:00,77.8,77.8,30.06,North,359,0.0,11.7,100,0.01,,SKC,0.01,VWS V14.01,2013-07-07 22:22:00,
2013-07-07 18:23:00,77.8,77.8,30.06,SW,219,0.6,11.7,100,0.01,,SKC,0.01,VWS V14.01,2013-07-07 22:23:00,
2013-07-07 18:24:00,77.8,77.8,30.06,North,359,0.0,11.7,100,0.01,,SKC,0.01,VWS V14.01,2013-07-07 22:24:00,
2013-07-07 18:25:00,77.8,77.8,30.06,North,359,0.0,11.7,100,0.01,,SKC,0.01,VWS V14.01,2013-07-07 22:25:00,
2013-07-07 18:27:00,77.7,77.7,30.06,North,359,0.0,11.7,100,0.01,,SKC,0.01,VWS V14.01,2013-07-07 22:27:00,
2013-07-07 18:28:00,77.7,77.7,30.06,North,359,0.0,11.7,100,0.01,,SKC,0.01,VWS V14.01,2013-07-07 22:28:00,
2013-07-07 18:29:00,77.8,77.8,30.06,North,359,0.0,11.7,100,0.01,,SKC,0.01,VWS V14.01,2013-07-07 22:29:00,
2013-07-07 18:30:00,77.8,77.8,30.06,North,359,0.0,11.7,100,0.01,,SKC,0.01,VWS V14.01,2013-07-07 22:30:00,
2013-07-07 18:32:00,77.8,77.8,30.06,North,359,0.0,11.7,100,0.01,,SKC,0.01,VWS V14.01,2013-07-07 22:32:00,
2013-07-07 18:33:00,77.8,77.8,30.06,North,359,0.0,11.7,100,0.01,,SKC,0.01,VWS V14.01,2013-07-07 22:33:00,
2013-07-07 18:35:00,77.8,77.8,30.06,North,359,0.0,11.7,100,0.01,,SKC,0.01,VWS V14.01,2013-07-07 22:35:00,
2013-07-07 18:37:00,77.7,77.7,30.06,North,359,0.0,11.7,100,0.01,,SKC,0.01,VWS V14.01,2013-07-07 22:37:00,
2013-07-07 18:39:00,77.7,77.7,30.06,North,359,0.0,11.7,100,0.01,,SKC,0.01,VWS V14.01,2013-07-07 22:39:00,
2013-07-07 18:40:00,77.7,77.7,30.06,North,359,0.0,11.7,100,0.01,,SKC,0.01,VWS V14.01,2013-07-07 22:40:00,
2013-07-07 18:43:00,77.7,77.7,30.07,North,359,0.0,11.7,100,0.01,,SKC,0.01,VWS V14.01,2013-07-07 22:43:00,
2013-07-07 18:44:00,77.8,77.8,30.07,North,359,0.0,11.7,100,0.01,,SKC,0.01,VWS V14.01,2013-07-07 22:44:00,
2013-07-07 18:45:00,77.8,77.7,30.07,North,359,0.0,11.7,100,0.01,,SKC,0.01,VWS V14.01,2013-07-07 22:45:00,
2013-07-07 18:48:00,77.8,77.8,30.07,North,359,0.0,11.7,100,0.01,,SKC,0.01,VWS V14.01,2013-07-07 22:48:00,
2013-07-07 18:49:00,77.8,77.8,30.07,North,359,0.0,11.7,100,0.01,,SKC,0.01,VWS V14.01,2013-07-07 22:49:00,
2013-07-07 18:50:00,77.8,77.8,30.07,North,359,0.0,11.7,100,0.01,,SKC,0.01,VWS V14.01,2013-07-07 22:50:00,
2013-07-07 18:53:00,77.8,77.8,30.07,North,359,0.0,11.7,100,0.01,,SKC,0.01,VWS V14.01,2013-07-07 22:53:00,
2013-07-07 18:54:00,77.9,77.9,30.07,North,359,0.0,11.7,100,0.01,,SKC,0.01,VWS V14.01,2013-07-07 22:54:00,
2013-07-07 18:55:00,77.9,77.9,30.07,North,359,0.0,11.7,100,0.01,,SKC,0.01,VWS V14.01,2013-07-07 22:55:00,
2013-07-07 18:56:00,77.8,77.8,30.07,North,359,0.0,11.7,100,0.01,,SKC,0.01,VWS V14.01,2013-07-07 22:56:00,
2013-07-07 18:58:00,77.8,77.8,30.07,North,359,0.0,11.7,100,0.01,,SKC,0.01,VWS V14.01,2013-07-07 22:58:00,
2013-07-07 18:59:00,77.9,77.9,30.07,North,359,0.0,11.7,100,0.01,,SKC,0.01,VWS V14.01,2013-07-07 22:59:00,
2013-07-07 19:00:00,77.9,77.9,30.07,North,359,0.0,11.7,100,0.01,,SKC,0.01,VWS V14.01,2013-07-07 23:00:00,
2013-07-07 19:01:00,77.8,77.8,30.07,North,359,0.0,11.7,100,0.01,,SKC,0.01,VWS V14.01,2013-07-07 23:01:00,
2013-07-07 19:03:00,77.9,77.9,30.07,North,359,0.0,11.7,100,0.01,,SKC,0.01,VWS V14.01,2013-07-07 23:03:00,
2013-07-07 19:04:00,77.9,77.9,30.07,North,359,0.0,11.7,100,0.01,,SKC,0.01,VWS V14.01,2013-07-07 23:04:00,
2013-07-07 19:05:00,77.9,77.9,30.07,North,359,0.0,11.7,100,0.01,,SKC,0.01,VWS V14.01,2013-07-07 23:05:00,
2013-07-07 19:06:00,77.9,77.9,30.07,North,359,0.0,11.7,100,0.01,,SKC,0.01,VWS V14.01,2013-07-07 23:06:00,
2013-07-07 19:09:00,77.9,77.9,30.07,North,359,0.0,11.7,100,0.01,,SKC,0.01,VWS V14.01,2013-07-07 23:09:00,
2013-07-07 19:10:00,77.9,77.9,30.07,North,359,0.0,11.7,100,0.01,,SKC,0.01,VWS V14.01,2013-07-07 23:10:00,
2013-07-07 19:11:00,77.9,77.9,30.07,North,359,0.0,11.7,100,0.01,,SKC,0.01,VWS V14.01,2013-07-07 23:11:00,
2013-07-07 19:14:00,77.9,77.9,30.07,North,359,0.0,11.7,100,0.01,,SKC,0.01,VWS V14.01,2013-07-07 23:14:00,
2013-07-07 19:15:00,77.9,77.9,30.07,North,359,0.0,11.7,100,0.01,,SKC,0.01,VWS V14.01,2013-07-07 23:15:00,
2013-07-07 19:16:00,77.9,77.9,30.07,North,359,0.0,11.7,100,0.01,,SKC,0.01,VWS V14.01,2013-07-07 23:16:00,
2013-07-07 19:19:00,78.0,78.0,30.07,North,359,0.0,11.7,100,0.01,,SKC,0.01,VWS V14.01,2013-07-07 23:19:00,
2013-07-07 19:20:00,77.9,77.9,30.07,North,359,0.0,11.7,100,0.01,,SKC,0.01,VWS V14.01,2013-07-07 23:20:00,
2013-07-07 19:21:00,77.9,77.9,30.07,North,359,0.0,11.7,100,0.01,,SKC,0.01,VWS V14.01,2013-07-07 23:21:00,
2013-07-07 19:24:00,77.9,77.9,30.07,North,359,0.0,11.7,100,0.01,,SKC,0.01,VWS V14.01,2013-07-07 23:24:00,
2013-07-07 19:25:00,77.9,77.9,30.07,North,359,0.0,11.7,100,0.01,,SKC,0.01,VWS V14.01,2013-07-07 23:25:00,
2013-07-07 19:26:00,77.9,77.9,30.07,North,359,0.0,11.7,100,0.01,,SKC,0.01,VWS V14.01,2013-07-07 23:26:00,
2013-07-07 19:29:00,77.9,77.9,30.07,North,359,0.0,11.7,100,0.02,,SKC,0.02,VWS V14.01,2013-07-07 23:29:00,
2013-07-07 19:30:00,77.9,77.9,30.07,North,359,0.0,11.7,100,0.02,,SKC,0.02,VWS V14.01,2013-07-07 23:30:00,
2013-07-07 19:31:00,77.9,77.9,30.07,North,359,0.0,11.7,100,0.02,,SKC,0.02,VWS V14.01,2013-07-07 23:31:00,
2013-07-07 19:32:00,77.9,77.9,30.07,North,359,0.0,11.7,100,0.02,,SKC,0.02,VWS V14.01,2013-07-07 23:32:00,
2013-07-07 19:34:00,78.0,78.0,30.07,North,359,0.0,11.7,100,0.02,,SKC,0.02,VWS V14.01,2013-07-07 23:34:00,
2013-07-07 19:35:00,77.9,77.9,30.07,North,359,0.0,11.7,100,0.02,,SKC,0.02,VWS V14.01,2013-07-07 23:35:00,
2013-07-07 19:36:00,77.9,77.9,30.07,North,359,0.0,11.7,100,0.02,,SKC,0.02,VWS V14.01,2013-07-07 23:36:00,
2013-07-07 19:37:00,77.9,77.9,30.08,North,359,0.0,11.7,100,0.02,,SKC,0.02,VWS V14.01,2013-07-07 23:37:00,
2013-07-07 19:39:00,77.9,77.9,30.08,North,359,0.0,11.7,100,0.02,,SKC,0.02,VWS V14.01,2013-07-07 23:39:00,
2013-07-07 19:40:00,78.0,77.9,30.08,North,359,0.0,11.7,100,0.02,,SKC,0.02,VWS V14.01,2013-07-07 23:40:00,
2013-07-07 19:41:00,77.9,78.0,30.08,North,359,0.0,11.7,100,0.02,,SKC,0.02,VWS V14.01,2013-07-07 23:41:00,
2013-07-07 19:42:00,78.0,78.0,30.08,North,359,0.0,11.7,100,0.02,,SKC,0.02,VWS V14.01,2013-07-07 23:42:00,
2013-07-07 19:44:00,78.0,78.0,30.08,North,359,0.0,11.7,100,0.02,,SKC,0.02,VWS V14.01,2013-07-07 23:44:00,
2013-07-07 19:45:00,78.0,78.0,30.08,North,359,0.0,11.7,100,0.02,,SKC,0.02,VWS V14.01,2013-07-07 23:45:00,
2013-07-07 19:46:00,77.9,77.9,30.08,North,359,0.0,11.7,100,0.02,,SKC,0.02,VWS V14.01,2013-07-07 23:46:00,
2013-07-07 19:47:00,77.9,77.9,30.08,North,359,0.0,11.7,100,0.02,,SKC,0.02,VWS V14.01,2013-07-07 23:47:00,
2013-07-07 19:50:00,78.0,78.0,30.08,North,359,0.0,11.7,100,0.02,,SKC,0.02,VWS V14.01,2013-07-07 23:50:00,
2013-07-07 19:51:00,77.9,77.9,30.08,North,359,0.0,11.7,100,0.02,,SKC,0.02,VWS V14.01,2013-07-07 23:51:00,
2013-07-07 19:52:00,78.0,78.0,30.08,North,359,0.0,11.7,100,0.02,,SKC,0.02,VWS V14.01,2013-07-07 23:52:00,
2013-07-07 19:55:00,78.0,77.9,30.09,North,359,0.0,11.7,100,0.02,,SKC,0.02,VWS V14.01,2013-07-07 23:55:00,
2013-07-07 19:56:00,78.0,78.0,30.09,North,359,0.0,11.7,100,0.02,,SKC,0.02,VWS V14.01,2013-07-07 23:56:00,
2013-07-07 19:57:00,78.0,78.0,30.09,North,359,0.0,11.7,100,0.02,,SKC,0.02,VWS V14.01,2013-07-07 23:57:00,
2013-07-07 20:00:00,78.0,78.0,30.09,North,359,0.0,11.7,100,0.02,,SKC,0.02,VWS V14.01,2013-07-08 00:00:00,
2013-07-07 20:01:00,78.0,78.0,30.09,North,359,0.0,11.7,100,0.02,,SKC,0.02,VWS V14.01,2013-07-08 00:01:00,
2013-07-07 20:02:00,77.9,77.9,30.09,North,359,0.0,11.7,100,0.02,,SKC,0.02,VWS V14.01,2013-07-08 00:02:00,
2013-07-07 20:05:00,78.0,78.0,30.09,North,359,0.0,11.7,100,0.02,,SKC,0.02,VWS V14.01,2013-07-08 00:05:00,
2013-07-07 20:06:00,78.0,78.0,30.09,North,359,0.0,11.7,100,0.02,,SKC,0.02,VWS V14.01,2013-07-08 00:06:00,
2013-07-07 20:07:00,78.0,78.0,30.09,North,359,0.0,11.7,100,0.02,,SKC,0.02,VWS V14.01,2013-07-08 00:07:00,
2013-07-07 20:11:00,78.0,78.0,30.09,North,359,0.0,11.7,100,0.02,,SKC,0.02,VWS V14.01,2013-07-08 00:11:00,
2013-07-07 20:12:00,78.0,78.0,30.09,North,359,0.0,11.7,100,0.02,,SKC,0.02,VWS V14.01,2013-07-08 00:12:00,
2013-07-07 20:13:00,78.1,78.0,30.09,North,359,0.0,11.7,100,0.02,,SKC,0.02,VWS V14.01,2013-07-08 00:13:00,
2013-07-07 20:16:00,78.0,78.0,30.09,North,359,0.0,11.7,100,0.02,,SKC,0.02,VWS V14.01,2013-07-08 00:16:00,
2013-07-07 20:17:00,77.9,77.9,30.09,North,359,0.0,11.7,100,0.02,,SKC,0.02,VWS V14.01,2013-07-08 00:17:00,
2013-07-07 20:18:00,77.9,77.9,30.09,North,359,0.0,11.7,100,0.02,,SKC,0.02,VWS V14.01,2013-07-08 00:18:00,
2013-07-07 20:21:00,77.8,77.8,30.09,North,359,0.0,11.7,100,0.02,,SKC,0.02,VWS V14.01,2013-07-08 00:21:00,
2013-07-07 20:22:00,77.8,77.8,30.09,North,359,0.0,11.7,100,0.02,,SKC,0.02,VWS V14.01,2013-07-08 00:22:00,
2013-07-07 20:23:00,77.7,77.7,30.10,North,359,0.0,11.7,100,0.02,,SKC,0.02,VWS V14.01,2013-07-08 00:23:00,
2013-07-07 20:26:00,77.5,77.5,30.10,North,359,0.0,11.7,100,0.02,,SKC,0.02,VWS V14.01,2013-07-08 00:26:00,
2013-07-07 20:27:00,77.5,77.5,30.10,North,359,0.0,11.7,100,0.02,,SKC,0.02,VWS V14.01,2013-07-08 00:27:00,
2013-07-07 20:28:00,77.4,77.4,30.10,North,359,0.0,11.7,100,0.02,,SKC,0.02,VWS V14.01,2013-07-08 00:28:00,
2013-07-07 20:31:00,77.4,77.4,30.10,North,359,0.0,11.7,100,0.02,,SKC,0.02,VWS V14.01,2013-07-08 00:31:00,
2013-07-07 20:32:00,77.3,77.3,30.10,North,359,0.0,11.7,100,0.02,,SKC,0.02,VWS V14.01,2013-07-08 00:32:00,
2013-07-07 20:33:00,77.2,77.2,30.10,North,359,0.0,11.7,100,0.02,,SKC,0.02,VWS V14.01,2013-07-08 00:33:00,
2013-07-07 20:36:00,77.2,77.2,30.10,North,359,0.0,11.7,100,0.02,,SKC,0.02,VWS V14.01,2013-07-08 00:36:00,
2013-07-07 20:37:00,77.2,77.2,30.10,North,359,0.0,11.7,100,0.02,,SKC,0.02,VWS V14.01,2013-07-08 00:37:00,
2013-07-07 20:38:00,77.1,77.1,30.10,North,359,0.0,11.7,100,0.02,,SKC,0.02,VWS V14.01,2013-07-08 00:38:00,
2013-07-07 20:41:00,77.0,77.0,30.10,North,359,0.0,11.7,100,0.02,,SKC,0.02,VWS V14.01,2013-07-08 00:41:00,
2013-07-07 20:42:00,77.0,77.0,30.10,North,359,0.0,11.7,100,0.02,,SKC,0.02,VWS V14.01,2013-07-08 00:42:00,
2013-07-07 20:43:00,76.9,76.9,30.10,North,359,0.0,11.7,100,0.02,,SKC,0.02,VWS V14.01,2013-07-08 00:43:00,
2013-07-07 20:44:00,76.9,76.9,30.10,North,359,0.0,11.7,100,0.02,,SKC,0.02,VWS V14.01,2013-07-08 00:44:00,
2013-07-07 20:46:00,76.8,76.8,30.10,North,359,0.0,11.7,100,0.02,,SKC,0.02,VWS V14.01,2013-07-08 00:46:00,
2013-07-07 20:47:00,76.8,76.8,30.10,North,359,0.0,11.7,100,0.02,,SKC,0.02,VWS V14.01,2013-07-08 00:47:00,
2013-07-07 20:48:00,76.7,76.7,30.10,North,359,0.0,11.7,100,0.02,,SKC,0.02,VWS V14.01,2013-07-08 00:48:00,
2013-07-07 20:49:00,76.7,76.7,30.10,North,359,0.0,11.7,100,0.02,,SKC,0.02,VWS V14.01,2013-07-08 00:49:00,
2013-07-07 20:51:00,76.6,76.6,30.10,North,359,0.0,11.7,100,0.02,,SKC,0.02,VWS V14.01,2013-07-08 00:51:00,
2013-07-07 20:52:00,76.6,76.6,30.10,North,359,0.0,11.7,100,0.02,,SKC,0.02,VWS V14.01,2013-07-08 00:52:00,
2013-07-07 20:54:00,76.5,76.5,30.10,North,359,0.0,11.7,100,0.02,,SKC,0.02,VWS V14.01,2013-07-08 00:54:00,
2013-07-07 20:55:00,76.5,76.5,30.10,North,359,0.0,11.7,100,0.02,,SKC,0.02,VWS V14.01,2013-07-08 00:55:00,
2013-07-07 20:57:00,76.4,76.4,30.10,North,359,0.0,11.7,100,0.02,,SKC,0.02,VWS V14.01,2013-07-08 00:57:00,
2013-07-07 20:59:00,76.4,76.4,30.10,North,359,0.0,11.7,100,0.02,,SKC,0.02,VWS V14.01,2013-07-08 00:59:00,
2013-07-07 21:00:00,76.5,76.5,30.10,North,359,0.0,11.7,100,0.02,,SKC,0.02,VWS V14.01,2013-07-08 01:00:00,
2013-07-07 21:02:00,76.4,76.4,30.10,North,359,0.0,11.7,100,0.02,,SKC,0.02,VWS V14.01,2013-07-08 01:02:00,
2013-07-07 21:05:00,76.3,76.3,30.10,North,359,0.0,11.7,100,0.02,,SKC,0.02,VWS V14.01,2013-07-08 01:05:00,
2013-07-07 21:07:00,76.2,76.2,30.10,North,359,0.0,11.7,100,0.02,,SKC,0.02,VWS V14.01,2013-07-08 01:07:00,
2013-07-07 21:08:00,76.2,76.2,30.10,North,359,0.0,11.7,100,0.02,,SKC,0.02,VWS V14.01,2013-07-08 01:08:00,
2013-07-07 21:10:00,76.0,76.0,30.10,North,359,0.0,11.7,100,0.02,,SKC,0.02,VWS V14.01,2013-07-08 01:10:00,
2013-07-07 21:12:00,75.9,75.9,30.10,North,359,0.0,11.7,100,0.02,,SKC,0.02,VWS V14.01,2013-07-08 01:12:00,
2013-07-07 21:13:00,75.8,75.8,30.10,North,359,0.0,11.7,100,0.02,,SKC,0.02,VWS V14.01,2013-07-08 01:13:00,
2013-07-07 21:15:00,75.7,75.7,30.10,North,359,0.0,11.7,100,0.02,,SKC,0.02,VWS V14.01,2013-07-08 01:15:00,
2013-07-07 21:18:00,75.4,75.4,30.10,North,359,0.0,11.7,100,0.02,,SKC,0.02,VWS V14.01,2013-07-08 01:18:00,
2013-07-07 21:20:00,75.3,75.3,30.10,North,359,0.0,11.7,100,0.02,,SKC,0.02,VWS V14.01,2013-07-08 01:20:00,
2013-07-07 21:21:00,75.3,75.3,30.10,North,359,0.0,11.7,100,0.02,,SKC,0.02,VWS V14.01,2013-07-08 01:21:00,
2013-07-07 21:23:00,75.2,75.2,30.10,North,359,0.0,11.7,100,0.02,,SKC,0.02,VWS V14.01,2013-07-08 01:23:00,
2013-07-07 21:25:00,75.0,75.0,30.10,North,359,0.0,11.7,100,0.02,,SKC,0.02,VWS V14.01,2013-07-08 01:25:00,
2013-07-07 21:26:00,75.0,75.0,30.10,North,359,0.0,11.7,100,0.02,,SKC,0.02,VWS V14.01,2013-07-08 01:26:00,
2013-07-07 21:28:00,75.0,75.0,30.10,North,359,0.0,11.7,100,0.02,,SKC,0.02,VWS V14.01,2013-07-08 01:28:00,
2013-07-07 21:30:00,74.8,74.8,30.10,North,359,0.0,11.7,100,0.02,,SKC,0.02,VWS V14.01,2013-07-08 01:30:00,
2013-07-07 21:32:00,74.8,74.9,30.10,North,359,0.0,11.7,100,0.02,,SKC,0.02,VWS V14.01,2013-07-08 01:32:00,
2013-07-07 21:33:00,74.9,74.8,30.10,North,359,0.0,11.7,100,0.02,,SKC,0.02,VWS V14.01,2013-07-08 01:33:00,
2013-07-07 21:35:00,74.8,74.8,30.10,North,359,0.0,11.7,100,0.02,,SKC,0.02,VWS V14.01,2013-07-08 01:35:00,
2013-07-07 21:37:00,74.8,74.7,30.10,North,359,0.0,11.7,100,0.02,,SKC,0.02,VWS V14.01,2013-07-08 01:37:00,
2013-07-07 21:38:00,74.7,74.7,30.10,North,359,0.0,11.7,100,0.02,,SKC,0.02,VWS V14.01,2013-07-08 01:38:00,
2013-07-07 21:39:00,74.6,74.6,30.10,North,359,0.0,11.7,100,0.02,,SKC,0.02,VWS V14.01,2013-07-08 01:39:00,
2013-07-07 21:40:00,74.7,74.7,30.10,North,359,0.0,11.7,100,0.02,,SKC,0.02,VWS V14.01,2013-07-08 01:40:00,
2013-07-07 21:42:00,74.6,74.6,30.10,North,359,0.0,11.7,100,0.02,,SKC,0.02,VWS V14.01,2013-07-08 01:42:00,
2013-07-07 21:43:00,74.6,74.6,30.10,North,359,0.0,11.7,100,0.02,,SKC,0.02,VWS V14.01,2013-07-08 01:43:00,
2013-07-07 21:44:00,74.6,74.6,30.10,North,359,0.0,11.7,100,0.02,,SKC,0.02,VWS V14.01,2013-07-08 01:44:00,
2013-07-07 21:45:00,74.6,74.6,30.10,North,359,0.0,11.7,100,0.02,,SKC,0.02,VWS V14.01,2013-07-08 01:45:00,
2013-07-07 21:47:00,74.6,74.6,30.10,North,359,0.0,11.7,100,0.02,,SKC,0.02,VWS V14.01,2013-07-08 01:47:00,
2013-07-07 21:48:00,74.7,74.7,30.10,North,359,0.0,11.7,100,0.02,,SKC,0.02,VWS V14.01,2013-07-08 01:48:00,
2013-07-07 21:49:00,74.6,74.6,30.10,North,359,0.0,11.7,100,0.02,,SKC,0.02,VWS V14.01,2013-07-08 01:49:00,
2013-07-07 21:51:00,74.6,74.6,30.10,North,359,0.0,11.7,100,0.02,,SKC,0.02,VWS V14.01,2013-07-08 01:51:00,
2013-07-07 21:52:00,74.6,74.6,30.10,North,359,0.0,11.7,100,0.02,,SKC,0.02,VWS V14.01,2013-07-08 01:52:00,
2013-07-07 21:53:00,74.6,74.6,30.10,North,359,0.0,11.7,100,0.02,,SKC,0.02,VWS V14.01,2013-07-08 01:53:00,
2013-07-07 21:54:00,74.5,74.5,30.10,North,359,0.0,11.7,100,0.02,,SKC,0.02,VWS V14.01,2013-07-08 01:54:00,
2013-07-07 21:56:00,74.6,74.6,30.10,North,359,0.0,11.7,100,0.02,,SKC,0.02,VWS V14.01,2013-07-08 01:56:00,
2013-07-07 21:57:00,74.6,74.6,30.10,North,359,0.0,11.7,100,0.02,,SKC,0.02,VWS V14.01,2013-07-08 01:57:00,
2013-07-07 21:58:00,74.6,74.6,30.10,North,359,0.0,11.7,100,0.02,,SKC,0.02,VWS V14.01,2013-07-08 01:58:00,
2013-07-07 21:59:00,74.6,74.6,30.11,North,359,0.0,11.7,100,0.02,,SKC,0.02,VWS V14.01,2013-07-08 01:59:00,
2013-07-07 22:01:00,74.6,74.6,30.11,North,359,0.0,11.7,100,0.02,,SKC,0.02,VWS V14.01,2013-07-08 02:01:00,
2013-07-07 22:02:00,74.7,74.7,30.11,North,359,0.0,11.7,100,0.02,,SKC,0.02,VWS V14.01,2013-07-08 02:02:00,
2013-07-07 22:03:00,74.6,74.6,30.10,North,359,0.0,11.7,100,0.02,,SKC,0.02,VWS V14.01,2013-07-08 02:03:00,
2013-07-07 22:04:00,74.6,74.6,30.11,North,359,0.0,11.7,100,0.02,,SKC,0.02,VWS V14.01,2013-07-08 02:04:00,
2013-07-07 22:06:00,74.6,74.6,30.11,North,359,0.0,11.7,100,0.02,,SKC,0.02,VWS V14.01,2013-07-08 02:06:00,
2013-07-07 22:07:00,74.6,74.6,30.11,North,359,0.0,11.7,100,0.02,,SKC,0.02,VWS V14.01,2013-07-08 02:07:00,
2013-07-07 22:08:00,74.6,74.5,30.11,North,359,0.0,11.7,100,0.02,,SKC,0.02,VWS V14.01,2013-07-08 02:08:00,
2013-07-07 22:09:00,74.6,74.6,30.11,North,359,0.0,11.7,100,0.02,,SKC,0.02,VWS V14.01,2013-07-08 02:09:00,
2013-07-07 22:11:00,74.6,74.6,30.11,North,359,0.0,11.7,100,0.02,,SKC,0.02,VWS V14.01,2013-07-08 02:11:00,
2013-07-07 22:12:00,74.6,74.6,30.11,North,359,0.0,11.7,100,0.02,,SKC,0.02,VWS V14.01,2013-07-08 02:12:00,
2013-07-07 22:13:00,74.5,74.5,30.11,North,359,0.0,11.7,100,0.02,,SKC,0.02,VWS V14.01,2013-07-08 02:13:00,
2013-07-07 22:14:00,74.4,74.4,30.11,North,359,0.0,11.7,100,0.02,,SKC,0.02,VWS V14.01,2013-07-08 02:14:00,
2013-07-07 22:15:00,74.4,74.4,30.11,North,359,0.0,11.7,100,0.02,,SKC,0.02,VWS V14.01,2013-07-08 02:15:00,
2013-07-07 22:16:00,74.4,74.4,30.11,North,359,0.0,11.7,100,0.02,,SKC,0.02,VWS V14.01,2013-07-08 02:16:00,
2013-07-07 22:17:00,74.4,74.4,30.11,North,359,0.0,11.7,100,0.02,,SKC,0.02,VWS V14.01,2013-07-08 02:17:00,
2013-07-07 22:19:00,74.4,74.4,30.11,North,359,0.0,11.7,100,0.02,,SKC,0.02,VWS V14.01,2013-07-08 02:19:00,
2013-07-07 22:20:00,74.4,74.4,30.11,North,359,0.0,11.7,100,0.02,,SKC,0.02,VWS V14.01,2013-07-08 02:20:00,
2013-07-07 22:21:00,74.3,74.3,30.11,North,359,0.0,11.7,100,0.02,,SKC,0.02,VWS V14.01,2013-07-08 02:21:00,
2013-07-07 22:23:00,74.3,74.3,30.11,North,359,0.0,11.7,100,0.02,,SKC,0.02,VWS V14.01,2013-07-08 02:23:00,
2013-07-07 22:24:00,74.2,74.2,30.11,North,359,0.0,11.7,100,0.02,,SKC,0.02,VWS V14.01,2013-07-08 02:24:00,
2013-07-07 22:25:00,74.2,74.2,30.12,North,359,0.0,11.7,100,0.02,,SKC,0.02,VWS V14.01,2013-07-08 02:25:00,
2013-07-07 22:26:00,74.2,74.2,30.12,North,359,0.0,11.7,100,0.02,,SKC,0.02,VWS V14.01,2013-07-08 02:26:00,
2013-07-07 22:28:00,74.1,74.1,30.12,North,359,0.0,11.7,100,0.02,,SKC,0.02,VWS V14.01,2013-07-08 02:28:00,
2013-07-07 22:29:00,74.0,74.0,30.12,North,359,0.0,11.7,100,0.02,,SKC,0.02,VWS V14.01,2013-07-08 02:29:00,
2013-07-07 22:30:00,74.1,74.1,30.12,North,359,0.0,11.7,100,0.02,,SKC,0.02,VWS V14.01,2013-07-08 02:30:00,
2013-07-07 22:31:00,74.0,74.0,30.11,North,359,0.0,11.7,100,0.02,,SKC,0.02,VWS V14.01,2013-07-08 02:31:00,
2013-07-07 22:33:00,73.9,73.9,30.11,North,359,0.0,11.7,100,0.02,,SKC,0.02,VWS V14.01,2013-07-08 02:33:00,
2013-07-07 22:34:00,74.0,74.0,30.11,North,359,0.0,11.7,100,0.02,,SKC,0.02,VWS V14.01,2013-07-08 02:34:00,
2013-07-07 22:35:00,74.0,74.0,30.11,North,359,0.0,11.7,100,0.02,,SKC,0.02,VWS V14.01,2013-07-08 02:35:00,
2013-07-07 22:36:00,74.0,73.9,30.11,North,359,0.0,11.7,100,0.02,,SKC,0.02,VWS V14.01,2013-07-08 02:36:00,
2013-07-07 22:38:00,74.0,74.0,30.11,North,359,0.0,11.7,100,0.02,,SKC,0.02,VWS V14.01,2013-07-08 02:38:00,
2013-07-07 22:39:00,74.0,74.0,30.11,North,359,0.0,11.7,100,0.02,,SKC,0.02,VWS V14.01,2013-07-08 02:39:00,
2013-07-07 22:40:00,74.0,74.0,30.11,North,359,0.0,11.7,100,0.02,,SKC,0.02,VWS V14.01,2013-07-08 02:40:00,
2013-07-07 22:41:00,73.9,73.9,30.11,North,359,0.0,11.7,100,0.02,,SKC,0.02,VWS V14.01,2013-07-08 02:41:00,
2013-07-07 22:43:00,73.9,73.9,30.11,North,359,0.0,11.7,100,0.02,,SKC,0.02,VWS V14.01,2013-07-08 02:43:00,
2013-07-07 22:44:00,73.9,73.9,30.11,North,359,0.0,11.7,100,0.02,,SKC,0.02,VWS V14.01,2013-07-08 02:44:00,
2013-07-07 22:45:00,73.8,73.8,30.11,North,359,0.0,11.7,100,0.02,,SKC,0.02,VWS V14.01,2013-07-08 02:45:00,
2013-07-07 22:47:00,73.9,73.9,30.11,North,359,0.0,11.7,100,0.02,,SKC,0.02,VWS V14.01,2013-07-08 02:47:00,
2013-07-07 22:49:00,73.8,73.8,30.11,North,359,0.0,11.7,100,0.02,,SKC,0.02,VWS V14.01,2013-07-08 02:49:00,
2013-07-07 22:50:00,73.8,73.8,30.11,North,359,0.0,11.7,100,0.02,,SKC,0.02,VWS V14.01,2013-07-08 02:50:00,
2013-07-07 22:52:00,73.8,73.8,30.11,North,359,0.0,11.7,100,0.02,,SKC,0.02,VWS V14.01,2013-07-08 02:52:00,
2013-07-07 22:54:00,73.7,73.7,30.11,North,359,0.0,11.7,100,0.02,,SKC,0.02,VWS V14.01,2013-07-08 02:54:00,
2013-07-07 22:55:00,73.6,73.6,30.11,North,359,0.0,11.7,100,0.02,,SKC,0.02,VWS V14.01,2013-07-08 02:55:00,
2013-07-07 22:56:00,73.6,73.6,30.11,North,359,0.0,11.7,100,0.02,,SKC,0.02,VWS V14.01,2013-07-08 02:56:00,
2013-07-07 22:57:00,73.6,73.6,30.11,North,359,0.0,11.7,100,0.02,,SKC,0.02,VWS V14.01,2013-07-08 02:57:00,
2013-07-07 22:59:00,73.6,73.6,30.11,North,359,0.0,11.7,100,0.02,,SKC,0.02,VWS V14.01,2013-07-08 02:59:00,
2013-07-07 23:00:00,73.6,73.6,30.11,North,359,0.0,11.7,100,0.02,,SKC,0.02,VWS V14.01,2013-07-08 03:00:00,
2013-07-07 23:01:00,73.6,73.6,30.11,North,359,0.0,11.7,100,0.02,,SKC,0.02,VWS V14.01,2013-07-08 03:01:00,
2013-07-07 23:02:00,73.6,73.6,30.11,North,359,0.0,11.7,100,0.02,,SKC,0.02,VWS V14.01,2013-07-08 03:02:00,
2013-07-07 23:04:00,73.6,73.6,30.12,North,359,0.0,11.7,100,0.02,,SKC,0.02,VWS V14.01,2013-07-08 03:04:00,
2013-07-07 23:05:00,73.7,73.6,30.12,North,359,0.0,11.7,100,0.02,,SKC,0.02,VWS V14.01,2013-07-08 03:05:00,
2013-07-07 23:06:00,73.6,73.6,30.12,North,359,0.0,11.7,100,0.02,,SKC,0.02,VWS V14.01,2013-07-08 03:06:00,
2013-07-07 23:07:00,73.6,73.6,30.12,North,359,0.0,11.7,100,0.02,,SKC,0.02,VWS V14.01,2013-07-08 03:07:00,
2013-07-07 23:08:00,75.5,75.5,30.14,SSW,211,2.9,11.7,100,0.02,,SKC,0.02,VWS V14.01,2013-07-08 03:08:00,
2013-07-07 23:09:00,73.7,73.7,30.12,North,359,0.0,11.7,100,0.02,,SKC,0.02,VWS V14.01,2013-07-08 03:09:00,
2013-07-07 23:10:00,73.7,73.7,30.12,North,359,0.0,11.7,100,0.02,,SKC,0.02,VWS V14.01,2013-07-08 03:10:00,
2013-07-07 23:11:00,73.7,73.7,30.12,North,359,0.0,11.7,100,0.02,,SKC,0.02,VWS V14.01,2013-07-08 03:11:00,
2013-07-07 23:12:00,75.6,75.5,30.14,South,176,6.1,11.7,100,0.02,,SKC,0.02,VWS V14.01,2013-07-08 03:12:00,
2013-07-07 23:13:00,73.7,73.7,30.12,North,359,0.0,11.7,100,0.02,,SKC,0.02,VWS V14.01,2013-07-08 03:13:00,
2013-07-07 23:14:00,73.8,73.8,30.12,North,359,0.0,11.7,100,0.02,,SKC,0.02,VWS V14.01,2013-07-08 03:14:00,
2013-07-07 23:15:00,73.8,73.8,30.12,North,359,0.0,11.7,100,0.02,,SKC,0.02,VWS V14.01,2013-07-08 03:15:00,
2013-07-07 23:16:00,73.8,73.9,30.12,North,359,0.0,11.7,100,0.02,,SKC,0.02,VWS V14.01,2013-07-08 03:16:00,
2013-07-07 23:18:00,73.9,73.9,30.12,North,359,0.0,11.7,100,0.02,,SKC,0.02,VWS V14.01,2013-07-08 03:18:00,
2013-07-07 23:19:00,73.9,73.9,30.13,North,359,0.0,11.7,100,0.02,,SKC,0.02,VWS V14.01,2013-07-08 03:19:00,
2013-07-07 23:21:00,73.9,73.9,30.13,North,359,0.0,11.7,100,0.02,,SKC,0.02,VWS V14.01,2013-07-08 03:21:00,
2013-07-07 23:23:00,74.0,74.0,30.13,North,359,0.0,11.7,100,0.02,,SKC,0.02,VWS V14.01,2013-07-08 03:23:00,
2013-07-07 23:24:00,74.1,74.1,30.13,North,359,0.0,11.7,100,0.02,,SKC,0.02,VWS V14.01,2013-07-08 03:24:00,
2013-07-07 23:26:00,74.2,74.2,30.13,North,359,0.0,11.7,100,0.02,,SKC,0.02,VWS V14.01,2013-07-08 03:26:00,
2013-07-07 23:28:00,74.5,74.5,30.13,North,359,0.0,11.7,100,0.02,,SKC,0.02,VWS V14.01,2013-07-08 03:28:00,
2013-07-07 23:30:00,74.6,74.6,30.13,North,359,0.0,11.7,100,0.02,,SKC,0.02,VWS V14.01,2013-07-08 03:30:00,
2013-07-07 23:31:00,74.6,74.6,30.13,North,359,0.0,11.7,100,0.02,,SKC,0.02,VWS V14.01,2013-07-08 03:31:00,
2013-07-07 23:33:00,74.6,74.6,30.13,North,359,0.0,11.7,100,0.02,,SKC,0.02,VWS V14.01,2013-07-08 03:33:00,
2013-07-07 23:35:00,74.6,74.6,30.13,North,359,0.0,11.7,100,0.02,,SKC,0.02,VWS V14.01,2013-07-08 03:35:00,
2013-07-07 23:36:00,74.5,74.5,30.13,SSW,212,0.0,11.7,100,0.02,,SKC,0.02,VWS V14.01,2013-07-08 03:36:00,
2013-07-07 23:37:00,74.5,74.5,30.13,SSW,212,0.0,11.7,100,0.02,,SKC,0.02,VWS V14.01,2013-07-08 03:37:00,
2013-07-07 23:38:00,74.5,74.4,30.13,SSW,212,0.0,11.7,100,0.02,,SKC,0.02,VWS V14.01,2013-07-08 03:38:00,
2013-07-07 23:40:00,74.6,74.6,30.14,SSW,212,0.0,11.7,100,0.02,,SKC,0.02,VWS V14.01,2013-07-08 03:40:00,
2013-07-07 23:41:00,74.6,74.6,30.14,SSW,212,0.0,11.7,100,0.02,,SKC,0.02,VWS V14.01,2013-07-08 03:41:00,
2013-07-07 23:42:00,74.7,74.7,30.13,SSW,212,0.0,11.7,100,0.02,,SKC,0.02,VWS V14.01,2013-07-08 03:42:00,
2013-07-07 23:43:00,74.8,74.8,30.13,SSW,212,0.0,11.7,100,0.02,,SKC,0.02,VWS V14.01,2013-07-08 03:43:00,
2013-07-07 23:45:00,74.8,74.8,30.13,SSW,212,0.4,11.7,100,0.02,,SKC,0.02,VWS V14.01,2013-07-08 03:45:00,
2013-07-07 23:46:00,74.9,74.9,30.13,SSW,212,0.0,11.7,100,0.02,,SKC,0.02,VWS V14.01,2013-07-08 03:46:00,
2013-07-07 23:47:00,75.0,75.0,30.13,South,174,5.7,11.7,100,0.02,,SKC,0.02,VWS V14.01,2013-07-08 03:47:00,
2013-07-07 23:49:00,75.1,75.1,30.13,SSE,167,0.0,11.7,100,0.02,,SKC,0.02,VWS V14.01,2013-07-08 03:49:00,
2013-07-07 23:51:00,75.2,75.2,30.13,South,183,5.8,11.7,100,0.02,,SKC,0.02,VWS V14.01,2013-07-08 03:51:00,
2013-07-07 23:53:00,75.2,75.2,30.13,SSW,193,7.2,11.7,100,0.02,,SKC,0.02,VWS V14.01,2013-07-08 03:53:00,
2013-07-07 23:54:00,75.2,75.2,30.13,South,188,5.0,11.7,100,0.02,,SKC,0.02,VWS V14.01,2013-07-08 03:54:00,
2013-07-07 23:56:00,75.3,75.3,30.13,SW,231,4.3,11.7,100,0.02,,SKC,0.02,VWS V14.01,2013-07-08 03:56:00,
2013-07-07 23:58:00,75.3,75.3,30.13,SSW,197,5.0,11.7,100,0.02,,SKC,0.02,VWS V14.01,2013-07-08 03:58:00,
2013-07-07 23:59:00,75.3,75.3,30.13,SW,231,0.0,11.7,100,0.02,,SKC,0.02,VWS V14.01,2013-07-08 03:59:00,